<?xml version="1.0"?>
<gpx xmlns="http://www.topografix.com/GPX/1/1" xmlns:xsi="http://www.w3.org/2001/XMLSchema-instance" version="1.1" creator="GPX RubyGem 1.0.0 -- http://dougfales.github.io/gpx/" xsi:schemaLocation="http://www.topografix.com/GPX/1/1 http://www.topografix.com/GPX/1/1/gpx.xsd">
  <metadata>
    <name/>
    <time>2026-05-08T03:30:37+00:00</time>
    <bound minlat="90.0" minlon="180.0" maxlat="-90.0" maxlon="-180.0"/>
  </metadata>
  <trk>
    <name/>
    <trkseg>
      <trkpt lat="45.313677" lon="7.307141">
        <time>1970-01-01T00:00:00+00:00</time>
        <ele>1035.0</ele>
      </trkpt>
      <trkpt lat="45.313445" lon="7.306993">
        <time>1970-01-01T00:00:00+00:00</time>
        <ele>1031.0</ele>
      </trkpt>
      <trkpt lat="45.313456" lon="7.306941">
        <time>1970-01-01T00:00:00+00:00</time>
        <ele>1031.0</ele>
      </trkpt>
      <trkpt lat="45.313422" lon="7.306921">
        <time>1970-01-01T00:00:00+00:00</time>
        <ele>1030.0</ele>
      </trkpt>
      <trkpt lat="45.313391" lon="7.306958">
        <time>1970-01-01T00:00:00+00:00</time>
        <ele>1030.0</ele>
      </trkpt>
      <trkpt lat="45.313158" lon="7.307478">
        <time>1970-01-01T00:00:00+00:00</time>
        <ele>1027.0</ele>
      </trkpt>
      <trkpt lat="45.313086" lon="7.307657">
        <time>1970-01-01T00:00:00+00:00</time>
        <ele>1026.0</ele>
      </trkpt>
      <trkpt lat="45.313024" lon="7.30789">
        <time>1970-01-01T00:00:00+00:00</time>
        <ele>1026.0</ele>
      </trkpt>
      <trkpt lat="45.312939" lon="7.308132">
        <time>1970-01-01T00:00:00+00:00</time>
        <ele>1026.0</ele>
      </trkpt>
      <trkpt lat="45.312565" lon="7.308971">
        <time>1970-01-01T00:00:00+00:00</time>
        <ele>1012.0</ele>
      </trkpt>
      <trkpt lat="45.312503" lon="7.309276">
        <time>1970-01-01T00:00:00+00:00</time>
        <ele>1008.0</ele>
      </trkpt>
      <trkpt lat="45.312498" lon="7.309467">
        <time>1970-01-01T00:00:00+00:00</time>
        <ele>1007.0</ele>
      </trkpt>
      <trkpt lat="45.312443" lon="7.309339">
        <time>1970-01-01T00:00:00+00:00</time>
        <ele>1006.0</ele>
      </trkpt>
      <trkpt lat="45.312439" lon="7.309249">
        <time>1970-01-01T00:00:00+00:00</time>
        <ele>1006.0</ele>
      </trkpt>
      <trkpt lat="45.312411" lon="7.309144">
        <time>1970-01-01T00:00:00+00:00</time>
        <ele>1005.0</ele>
      </trkpt>
      <trkpt lat="45.312364" lon="7.309097">
        <time>1970-01-01T00:00:00+00:00</time>
        <ele>1004.0</ele>
      </trkpt>
      <trkpt lat="45.311892" lon="7.308947">
        <time>1970-01-01T00:00:00+00:00</time>
        <ele>1004.0</ele>
      </trkpt>
      <trkpt lat="45.311839" lon="7.308963">
        <time>1970-01-01T00:00:00+00:00</time>
        <ele>1006.0</ele>
      </trkpt>
      <trkpt lat="45.311789" lon="7.309112">
        <time>1970-01-01T00:00:00+00:00</time>
        <ele>1007.0</ele>
      </trkpt>
      <trkpt lat="45.311678" lon="7.309319">
        <time>1970-01-01T00:00:00+00:00</time>
        <ele>1012.0</ele>
      </trkpt>
      <trkpt lat="45.311651" lon="7.309704">
        <time>1970-01-01T00:00:00+00:00</time>
        <ele>1012.0</ele>
      </trkpt>
      <trkpt lat="45.311615" lon="7.309875">
        <time>1970-01-01T00:00:00+00:00</time>
        <ele>1015.0</ele>
      </trkpt>
      <trkpt lat="45.311518" lon="7.310162">
        <time>1970-01-01T00:00:00+00:00</time>
        <ele>1023.0</ele>
      </trkpt>
      <trkpt lat="45.311484" lon="7.310196">
        <time>1970-01-01T00:00:00+00:00</time>
        <ele>1026.0</ele>
      </trkpt>
      <trkpt lat="45.311438" lon="7.310169">
        <time>1970-01-01T00:00:00+00:00</time>
        <ele>1029.0</ele>
      </trkpt>
      <trkpt lat="45.31143" lon="7.310099">
        <time>1970-01-01T00:00:00+00:00</time>
        <ele>1030.0</ele>
      </trkpt>
      <trkpt lat="45.311461" lon="7.309897">
        <time>1970-01-01T00:00:00+00:00</time>
        <ele>1027.0</ele>
      </trkpt>
      <trkpt lat="45.311422" lon="7.30957">
        <time>1970-01-01T00:00:00+00:00</time>
        <ele>1031.0</ele>
      </trkpt>
      <trkpt lat="45.311417" lon="7.309413">
        <time>1970-01-01T00:00:00+00:00</time>
        <ele>1032.0</ele>
      </trkpt>
      <trkpt lat="45.311346" lon="7.309022">
        <time>1970-01-01T00:00:00+00:00</time>
        <ele>1040.0</ele>
      </trkpt>
      <trkpt lat="45.311172" lon="7.308506">
        <time>1970-01-01T00:00:00+00:00</time>
        <ele>1057.0</ele>
      </trkpt>
      <trkpt lat="45.311013" lon="7.307724">
        <time>1970-01-01T00:00:00+00:00</time>
        <ele>1073.0</ele>
      </trkpt>
      <trkpt lat="45.310901" lon="7.307374">
        <time>1970-01-01T00:00:00+00:00</time>
        <ele>1082.0</ele>
      </trkpt>
      <trkpt lat="45.310875" lon="7.307188">
        <time>1970-01-01T00:00:00+00:00</time>
        <ele>1086.0</ele>
      </trkpt>
      <trkpt lat="45.310867" lon="7.307003">
        <time>1970-01-01T00:00:00+00:00</time>
        <ele>1089.0</ele>
      </trkpt>
      <trkpt lat="45.310816" lon="7.30705">
        <time>1970-01-01T00:00:00+00:00</time>
        <ele>1091.0</ele>
      </trkpt>
      <trkpt lat="45.310944" lon="7.306775">
        <time>1970-01-01T00:00:00+00:00</time>
        <ele>1087.0</ele>
      </trkpt>
      <trkpt lat="45.310971" lon="7.306601">
        <time>1970-01-01T00:00:00+00:00</time>
        <ele>1088.0</ele>
      </trkpt>
      <trkpt lat="45.31093" lon="7.306452">
        <time>1970-01-01T00:00:00+00:00</time>
        <ele>1094.0</ele>
      </trkpt>
      <trkpt lat="45.310967" lon="7.306294">
        <time>1970-01-01T00:00:00+00:00</time>
        <ele>1094.0</ele>
      </trkpt>
      <trkpt lat="45.310958" lon="7.306136">
        <time>1970-01-01T00:00:00+00:00</time>
        <ele>1098.0</ele>
      </trkpt>
      <trkpt lat="45.310918" lon="7.306008">
        <time>1970-01-01T00:00:00+00:00</time>
        <ele>1103.0</ele>
      </trkpt>
      <trkpt lat="45.310832" lon="7.305843">
        <time>1970-01-01T00:00:00+00:00</time>
        <ele>1110.0</ele>
      </trkpt>
      <trkpt lat="45.310815" lon="7.305644">
        <time>1970-01-01T00:00:00+00:00</time>
        <ele>1113.0</ele>
      </trkpt>
      <trkpt lat="45.310853" lon="7.305457">
        <time>1970-01-01T00:00:00+00:00</time>
        <ele>1113.0</ele>
      </trkpt>
      <trkpt lat="45.310831" lon="7.305152">
        <time>1970-01-01T00:00:00+00:00</time>
        <ele>1115.0</ele>
      </trkpt>
      <trkpt lat="45.310626" lon="7.304269">
        <time>1970-01-01T00:00:00+00:00</time>
        <ele>1123.0</ele>
      </trkpt>
      <trkpt lat="45.310548" lon="7.304078">
        <time>1970-01-01T00:00:00+00:00</time>
        <ele>1126.0</ele>
      </trkpt>
      <trkpt lat="45.310443" lon="7.303999">
        <time>1970-01-01T00:00:00+00:00</time>
        <ele>1132.0</ele>
      </trkpt>
      <trkpt lat="45.310392" lon="7.303854">
        <time>1970-01-01T00:00:00+00:00</time>
        <ele>1134.0</ele>
      </trkpt>
      <trkpt lat="45.310229" lon="7.303679">
        <time>1970-01-01T00:00:00+00:00</time>
        <ele>1143.0</ele>
      </trkpt>
      <trkpt lat="45.310162" lon="7.303526">
        <time>1970-01-01T00:00:00+00:00</time>
        <ele>1147.0</ele>
      </trkpt>
      <trkpt lat="45.310087" lon="7.303492">
        <time>1970-01-01T00:00:00+00:00</time>
        <ele>1152.0</ele>
      </trkpt>
      <trkpt lat="45.310031" lon="7.303438">
        <time>1970-01-01T00:00:00+00:00</time>
        <ele>1156.0</ele>
      </trkpt>
      <trkpt lat="45.310051" lon="7.303227">
        <time>1970-01-01T00:00:00+00:00</time>
        <ele>1157.0</ele>
      </trkpt>
      <trkpt lat="45.310017" lon="7.303026">
        <time>1970-01-01T00:00:00+00:00</time>
        <ele>1162.0</ele>
      </trkpt>
      <trkpt lat="45.310067" lon="7.302887">
        <time>1970-01-01T00:00:00+00:00</time>
        <ele>1161.0</ele>
      </trkpt>
      <trkpt lat="45.310061" lon="7.302751">
        <time>1970-01-01T00:00:00+00:00</time>
        <ele>1163.0</ele>
      </trkpt>
      <trkpt lat="45.30983" lon="7.302404">
        <time>1970-01-01T00:00:00+00:00</time>
        <ele>1184.0</ele>
      </trkpt>
      <trkpt lat="45.309753" lon="7.302215">
        <time>1970-01-01T00:00:00+00:00</time>
        <ele>1190.0</ele>
      </trkpt>
      <trkpt lat="45.309728" lon="7.302031">
        <time>1970-01-01T00:00:00+00:00</time>
        <ele>1191.0</ele>
      </trkpt>
      <trkpt lat="45.309571" lon="7.301598">
        <time>1970-01-01T00:00:00+00:00</time>
        <ele>1201.0</ele>
      </trkpt>
      <trkpt lat="45.309222" lon="7.300021">
        <time>1970-01-01T00:00:00+00:00</time>
        <ele>1224.0</ele>
      </trkpt>
      <trkpt lat="45.309159" lon="7.299842">
        <time>1970-01-01T00:00:00+00:00</time>
        <ele>1227.0</ele>
      </trkpt>
      <trkpt lat="45.30904" lon="7.299591">
        <time>1970-01-01T00:00:00+00:00</time>
        <ele>1232.0</ele>
      </trkpt>
      <trkpt lat="45.308912" lon="7.29938">
        <time>1970-01-01T00:00:00+00:00</time>
        <ele>1238.0</ele>
      </trkpt>
      <trkpt lat="45.308857" lon="7.299156">
        <time>1970-01-01T00:00:00+00:00</time>
        <ele>1238.0</ele>
      </trkpt>
      <trkpt lat="45.308572" lon="7.299046">
        <time>1970-01-01T00:00:00+00:00</time>
        <ele>1253.0</ele>
      </trkpt>
      <trkpt lat="45.308297" lon="7.29891">
        <time>1970-01-01T00:00:00+00:00</time>
        <ele>1275.0</ele>
      </trkpt>
      <trkpt lat="45.308201" lon="7.298902">
        <time>1970-01-01T00:00:00+00:00</time>
        <ele>1281.0</ele>
      </trkpt>
      <trkpt lat="45.308282" lon="7.29857">
        <time>1970-01-01T00:00:00+00:00</time>
        <ele>1275.0</ele>
      </trkpt>
      <trkpt lat="45.308227" lon="7.298373">
        <time>1970-01-01T00:00:00+00:00</time>
        <ele>1279.0</ele>
      </trkpt>
      <trkpt lat="45.30822" lon="7.298128">
        <time>1970-01-01T00:00:00+00:00</time>
        <ele>1280.0</ele>
      </trkpt>
      <trkpt lat="45.308168" lon="7.297939">
        <time>1970-01-01T00:00:00+00:00</time>
        <ele>1283.0</ele>
      </trkpt>
      <trkpt lat="45.308059" lon="7.297754">
        <time>1970-01-01T00:00:00+00:00</time>
        <ele>1287.0</ele>
      </trkpt>
      <trkpt lat="45.307783" lon="7.297474">
        <time>1970-01-01T00:00:00+00:00</time>
        <ele>1302.0</ele>
      </trkpt>
      <trkpt lat="45.307635" lon="7.297144">
        <time>1970-01-01T00:00:00+00:00</time>
        <ele>1309.0</ele>
      </trkpt>
      <trkpt lat="45.307462" lon="7.296954">
        <time>1970-01-01T00:00:00+00:00</time>
        <ele>1314.0</ele>
      </trkpt>
      <trkpt lat="45.307056" lon="7.296591">
        <time>1970-01-01T00:00:00+00:00</time>
        <ele>1337.0</ele>
      </trkpt>
      <trkpt lat="45.307184" lon="7.296357">
        <time>1970-01-01T00:00:00+00:00</time>
        <ele>1331.0</ele>
      </trkpt>
      <trkpt lat="45.307202" lon="7.296265">
        <time>1970-01-01T00:00:00+00:00</time>
        <ele>1330.0</ele>
      </trkpt>
      <trkpt lat="45.30717" lon="7.296217">
        <time>1970-01-01T00:00:00+00:00</time>
        <ele>1333.0</ele>
      </trkpt>
      <trkpt lat="45.307041" lon="7.296202">
        <time>1970-01-01T00:00:00+00:00</time>
        <ele>1338.0</ele>
      </trkpt>
      <trkpt lat="45.307005" lon="7.296136">
        <time>1970-01-01T00:00:00+00:00</time>
        <ele>1340.0</ele>
      </trkpt>
      <trkpt lat="45.307046" lon="7.296028">
        <time>1970-01-01T00:00:00+00:00</time>
        <ele>1339.0</ele>
      </trkpt>
      <trkpt lat="45.307024" lon="7.295903">
        <time>1970-01-01T00:00:00+00:00</time>
        <ele>1339.0</ele>
      </trkpt>
      <trkpt lat="45.307066" lon="7.295758">
        <time>1970-01-01T00:00:00+00:00</time>
        <ele>1339.0</ele>
      </trkpt>
      <trkpt lat="45.307121" lon="7.295679">
        <time>1970-01-01T00:00:00+00:00</time>
        <ele>1338.0</ele>
      </trkpt>
      <trkpt lat="45.307071" lon="7.295583">
        <time>1970-01-01T00:00:00+00:00</time>
        <ele>1338.0</ele>
      </trkpt>
      <trkpt lat="45.30682" lon="7.29554">
        <time>1970-01-01T00:00:00+00:00</time>
        <ele>1344.0</ele>
      </trkpt>
      <trkpt lat="45.306744" lon="7.295502">
        <time>1970-01-01T00:00:00+00:00</time>
        <ele>1346.0</ele>
      </trkpt>
      <trkpt lat="45.306635" lon="7.295558">
        <time>1970-01-01T00:00:00+00:00</time>
        <ele>1351.0</ele>
      </trkpt>
      <trkpt lat="45.306528" lon="7.295548">
        <time>1970-01-01T00:00:00+00:00</time>
        <ele>1356.0</ele>
      </trkpt>
      <trkpt lat="45.306412" lon="7.295525">
        <time>1970-01-01T00:00:00+00:00</time>
        <ele>1360.0</ele>
      </trkpt>
      <trkpt lat="45.306346" lon="7.295472">
        <time>1970-01-01T00:00:00+00:00</time>
        <ele>1362.0</ele>
      </trkpt>
      <trkpt lat="45.306268" lon="7.295507">
        <time>1970-01-01T00:00:00+00:00</time>
        <ele>1367.0</ele>
      </trkpt>
      <trkpt lat="45.306241" lon="7.295601">
        <time>1970-01-01T00:00:00+00:00</time>
        <ele>1370.0</ele>
      </trkpt>
      <trkpt lat="45.306225" lon="7.295762">
        <time>1970-01-01T00:00:00+00:00</time>
        <ele>1373.0</ele>
      </trkpt>
      <trkpt lat="45.306126" lon="7.295884">
        <time>1970-01-01T00:00:00+00:00</time>
        <ele>1381.0</ele>
      </trkpt>
      <trkpt lat="45.306066" lon="7.295841">
        <time>1970-01-01T00:00:00+00:00</time>
        <ele>1385.0</ele>
      </trkpt>
      <trkpt lat="45.305949" lon="7.295797">
        <time>1970-01-01T00:00:00+00:00</time>
        <ele>1392.0</ele>
      </trkpt>
      <trkpt lat="45.305882" lon="7.295711">
        <time>1970-01-01T00:00:00+00:00</time>
        <ele>1394.0</ele>
      </trkpt>
      <trkpt lat="45.305767" lon="7.295623">
        <time>1970-01-01T00:00:00+00:00</time>
        <ele>1400.0</ele>
      </trkpt>
      <trkpt lat="45.305687" lon="7.295488">
        <time>1970-01-01T00:00:00+00:00</time>
        <ele>1404.0</ele>
      </trkpt>
      <trkpt lat="45.305472" lon="7.29526">
        <time>1970-01-01T00:00:00+00:00</time>
        <ele>1417.0</ele>
      </trkpt>
      <trkpt lat="45.305396" lon="7.295126">
        <time>1970-01-01T00:00:00+00:00</time>
        <ele>1419.0</ele>
      </trkpt>
      <trkpt lat="45.305199" lon="7.294926">
        <time>1970-01-01T00:00:00+00:00</time>
        <ele>1425.0</ele>
      </trkpt>
      <trkpt lat="45.305151" lon="7.294749">
        <time>1970-01-01T00:00:00+00:00</time>
        <ele>1423.0</ele>
      </trkpt>
      <trkpt lat="45.305045" lon="7.294656">
        <time>1970-01-01T00:00:00+00:00</time>
        <ele>1427.0</ele>
      </trkpt>
      <trkpt lat="45.304697" lon="7.294512">
        <time>1970-01-01T00:00:00+00:00</time>
        <ele>1441.0</ele>
      </trkpt>
      <trkpt lat="45.304601" lon="7.294403">
        <time>1970-01-01T00:00:00+00:00</time>
        <ele>1440.0</ele>
      </trkpt>
      <trkpt lat="45.304499" lon="7.294408">
        <time>1970-01-01T00:00:00+00:00</time>
        <ele>1444.0</ele>
      </trkpt>
      <trkpt lat="45.304258" lon="7.294322">
        <time>1970-01-01T00:00:00+00:00</time>
        <ele>1448.0</ele>
      </trkpt>
      <trkpt lat="45.303872" lon="7.294296">
        <time>1970-01-01T00:00:00+00:00</time>
        <ele>1460.0</ele>
      </trkpt>
      <trkpt lat="45.303712" lon="7.294305">
        <time>1970-01-01T00:00:00+00:00</time>
        <ele>1464.0</ele>
      </trkpt>
      <trkpt lat="45.303589" lon="7.29426">
        <time>1970-01-01T00:00:00+00:00</time>
        <ele>1467.0</ele>
      </trkpt>
      <trkpt lat="45.303403" lon="7.294306">
        <time>1970-01-01T00:00:00+00:00</time>
        <ele>1473.0</ele>
      </trkpt>
      <trkpt lat="45.303081" lon="7.294228">
        <time>1970-01-01T00:00:00+00:00</time>
        <ele>1477.0</ele>
      </trkpt>
      <trkpt lat="45.30303" lon="7.294193">
        <time>1970-01-01T00:00:00+00:00</time>
        <ele>1477.0</ele>
      </trkpt>
      <trkpt lat="45.302456" lon="7.294134">
        <time>1970-01-01T00:00:00+00:00</time>
        <ele>1480.0</ele>
      </trkpt>
      <trkpt lat="45.30236" lon="7.294219">
        <time>1970-01-01T00:00:00+00:00</time>
        <ele>1485.0</ele>
      </trkpt>
      <trkpt lat="45.302277" lon="7.294253">
        <time>1970-01-01T00:00:00+00:00</time>
        <ele>1487.0</ele>
      </trkpt>
      <trkpt lat="45.302036" lon="7.29426">
        <time>1970-01-01T00:00:00+00:00</time>
        <ele>1492.0</ele>
      </trkpt>
      <trkpt lat="45.301921" lon="7.294289">
        <time>1970-01-01T00:00:00+00:00</time>
        <ele>1495.0</ele>
      </trkpt>
      <trkpt lat="45.301864" lon="7.294377">
        <time>1970-01-01T00:00:00+00:00</time>
        <ele>1498.0</ele>
      </trkpt>
      <trkpt lat="45.30178" lon="7.294402">
        <time>1970-01-01T00:00:00+00:00</time>
        <ele>1500.0</ele>
      </trkpt>
      <trkpt lat="45.301721" lon="7.294486">
        <time>1970-01-01T00:00:00+00:00</time>
        <ele>1503.0</ele>
      </trkpt>
      <trkpt lat="45.30166" lon="7.294454">
        <time>1970-01-01T00:00:00+00:00</time>
        <ele>1503.0</ele>
      </trkpt>
      <trkpt lat="45.301609" lon="7.294552">
        <time>1970-01-01T00:00:00+00:00</time>
        <ele>1506.0</ele>
      </trkpt>
      <trkpt lat="45.301371" lon="7.294625">
        <time>1970-01-01T00:00:00+00:00</time>
        <ele>1509.0</ele>
      </trkpt>
      <trkpt lat="45.301115" lon="7.294601">
        <time>1970-01-01T00:00:00+00:00</time>
        <ele>1511.0</ele>
      </trkpt>
      <trkpt lat="45.300959" lon="7.294673">
        <time>1970-01-01T00:00:00+00:00</time>
        <ele>1515.0</ele>
      </trkpt>
      <trkpt lat="45.300908" lon="7.29478">
        <time>1970-01-01T00:00:00+00:00</time>
        <ele>1517.0</ele>
      </trkpt>
      <trkpt lat="45.300803" lon="7.295148">
        <time>1970-01-01T00:00:00+00:00</time>
        <ele>1525.0</ele>
      </trkpt>
      <trkpt lat="45.300614" lon="7.295365">
        <time>1970-01-01T00:00:00+00:00</time>
        <ele>1529.0</ele>
      </trkpt>
      <trkpt lat="45.300288" lon="7.295528">
        <time>1970-01-01T00:00:00+00:00</time>
        <ele>1535.0</ele>
      </trkpt>
      <trkpt lat="45.300087" lon="7.295707">
        <time>1970-01-01T00:00:00+00:00</time>
        <ele>1542.0</ele>
      </trkpt>
      <trkpt lat="45.300006" lon="7.295723">
        <time>1970-01-01T00:00:00+00:00</time>
        <ele>1544.0</ele>
      </trkpt>
      <trkpt lat="45.299918" lon="7.295679">
        <time>1970-01-01T00:00:00+00:00</time>
        <ele>1545.0</ele>
      </trkpt>
      <trkpt lat="45.299863" lon="7.295752">
        <time>1970-01-01T00:00:00+00:00</time>
        <ele>1547.0</ele>
      </trkpt>
      <trkpt lat="45.299583" lon="7.295758">
        <time>1970-01-01T00:00:00+00:00</time>
        <ele>1556.0</ele>
      </trkpt>
      <trkpt lat="45.29929" lon="7.29565">
        <time>1970-01-01T00:00:00+00:00</time>
        <ele>1566.0</ele>
      </trkpt>
      <trkpt lat="45.299229" lon="7.295596">
        <time>1970-01-01T00:00:00+00:00</time>
        <ele>1569.0</ele>
      </trkpt>
      <trkpt lat="45.299003" lon="7.295596">
        <time>1970-01-01T00:00:00+00:00</time>
        <ele>1579.0</ele>
      </trkpt>
      <trkpt lat="45.298944" lon="7.295679">
        <time>1970-01-01T00:00:00+00:00</time>
        <ele>1581.0</ele>
      </trkpt>
      <trkpt lat="45.298956" lon="7.296108">
        <time>1970-01-01T00:00:00+00:00</time>
        <ele>1590.0</ele>
      </trkpt>
      <trkpt lat="45.298873" lon="7.296173">
        <time>1970-01-01T00:00:00+00:00</time>
        <ele>1591.0</ele>
      </trkpt>
      <trkpt lat="45.298812" lon="7.296181">
        <time>1970-01-01T00:00:00+00:00</time>
        <ele>1592.0</ele>
      </trkpt>
      <trkpt lat="45.298755" lon="7.296432">
        <time>1970-01-01T00:00:00+00:00</time>
        <ele>1597.0</ele>
      </trkpt>
      <trkpt lat="45.298649" lon="7.296651">
        <time>1970-01-01T00:00:00+00:00</time>
        <ele>1603.0</ele>
      </trkpt>
      <trkpt lat="45.298457" lon="7.296764">
        <time>1970-01-01T00:00:00+00:00</time>
        <ele>1608.0</ele>
      </trkpt>
      <trkpt lat="45.298224" lon="7.296967">
        <time>1970-01-01T00:00:00+00:00</time>
        <ele>1617.0</ele>
      </trkpt>
      <trkpt lat="45.298035" lon="7.297006">
        <time>1970-01-01T00:00:00+00:00</time>
        <ele>1620.0</ele>
      </trkpt>
      <trkpt lat="45.297648" lon="7.297198">
        <time>1970-01-01T00:00:00+00:00</time>
        <ele>1627.0</ele>
      </trkpt>
      <trkpt lat="45.297566" lon="7.297492">
        <time>1970-01-01T00:00:00+00:00</time>
        <ele>1634.0</ele>
      </trkpt>
      <trkpt lat="45.297497" lon="7.297596">
        <time>1970-01-01T00:00:00+00:00</time>
        <ele>1637.0</ele>
      </trkpt>
      <trkpt lat="45.297057" lon="7.297783">
        <time>1970-01-01T00:00:00+00:00</time>
        <ele>1645.0</ele>
      </trkpt>
      <trkpt lat="45.296947" lon="7.297992">
        <time>1970-01-01T00:00:00+00:00</time>
        <ele>1651.0</ele>
      </trkpt>
      <trkpt lat="45.296871" lon="7.298102">
        <time>1970-01-01T00:00:00+00:00</time>
        <ele>1655.0</ele>
      </trkpt>
      <trkpt lat="45.296784" lon="7.298089">
        <time>1970-01-01T00:00:00+00:00</time>
        <ele>1655.0</ele>
      </trkpt>
      <trkpt lat="45.296602" lon="7.297893">
        <time>1970-01-01T00:00:00+00:00</time>
        <ele>1652.0</ele>
      </trkpt>
      <trkpt lat="45.296526" lon="7.297864">
        <time>1970-01-01T00:00:00+00:00</time>
        <ele>1651.0</ele>
      </trkpt>
      <trkpt lat="45.296455" lon="7.297911">
        <time>1970-01-01T00:00:00+00:00</time>
        <ele>1652.0</ele>
      </trkpt>
      <trkpt lat="45.296343" lon="7.298063">
        <time>1970-01-01T00:00:00+00:00</time>
        <ele>1656.0</ele>
      </trkpt>
      <trkpt lat="45.296168" lon="7.298126">
        <time>1970-01-01T00:00:00+00:00</time>
        <ele>1659.0</ele>
      </trkpt>
      <trkpt lat="45.296052" lon="7.29808">
        <time>1970-01-01T00:00:00+00:00</time>
        <ele>1659.0</ele>
      </trkpt>
      <trkpt lat="45.295952" lon="7.297991">
        <time>1970-01-01T00:00:00+00:00</time>
        <ele>1658.0</ele>
      </trkpt>
      <trkpt lat="45.295777" lon="7.297975">
        <time>1970-01-01T00:00:00+00:00</time>
        <ele>1662.0</ele>
      </trkpt>
      <trkpt lat="45.295614" lon="7.297907">
        <time>1970-01-01T00:00:00+00:00</time>
        <ele>1665.0</ele>
      </trkpt>
      <trkpt lat="45.295523" lon="7.297841">
        <time>1970-01-01T00:00:00+00:00</time>
        <ele>1666.0</ele>
      </trkpt>
      <trkpt lat="45.295474" lon="7.29769">
        <time>1970-01-01T00:00:00+00:00</time>
        <ele>1665.0</ele>
      </trkpt>
      <trkpt lat="45.295243" lon="7.297338">
        <time>1970-01-01T00:00:00+00:00</time>
        <ele>1669.0</ele>
      </trkpt>
      <trkpt lat="45.294979" lon="7.297194">
        <time>1970-01-01T00:00:00+00:00</time>
        <ele>1677.0</ele>
      </trkpt>
      <trkpt lat="45.294908" lon="7.297248">
        <time>1970-01-01T00:00:00+00:00</time>
        <ele>1681.0</ele>
      </trkpt>
      <trkpt lat="45.294758" lon="7.297158">
        <time>1970-01-01T00:00:00+00:00</time>
        <ele>1685.0</ele>
      </trkpt>
      <trkpt lat="45.29464" lon="7.297152">
        <time>1970-01-01T00:00:00+00:00</time>
        <ele>1688.0</ele>
      </trkpt>
      <trkpt lat="45.294424" lon="7.297074">
        <time>1970-01-01T00:00:00+00:00</time>
        <ele>1689.0</ele>
      </trkpt>
      <trkpt lat="45.294201" lon="7.29715">
        <time>1970-01-01T00:00:00+00:00</time>
        <ele>1694.0</ele>
      </trkpt>
      <trkpt lat="45.293988" lon="7.297277">
        <time>1970-01-01T00:00:00+00:00</time>
        <ele>1699.0</ele>
      </trkpt>
      <trkpt lat="45.293846" lon="7.29732">
        <time>1970-01-01T00:00:00+00:00</time>
        <ele>1702.0</ele>
      </trkpt>
      <trkpt lat="45.293776" lon="7.297412">
        <time>1970-01-01T00:00:00+00:00</time>
        <ele>1705.0</ele>
      </trkpt>
      <trkpt lat="45.293749" lon="7.297494">
        <time>1970-01-01T00:00:00+00:00</time>
        <ele>1708.0</ele>
      </trkpt>
      <trkpt lat="45.29366" lon="7.297541">
        <time>1970-01-01T00:00:00+00:00</time>
        <ele>1712.0</ele>
      </trkpt>
      <trkpt lat="45.293362" lon="7.297374">
        <time>1970-01-01T00:00:00+00:00</time>
        <ele>1715.0</ele>
      </trkpt>
      <trkpt lat="45.29317" lon="7.297392">
        <time>1970-01-01T00:00:00+00:00</time>
        <ele>1719.0</ele>
      </trkpt>
      <trkpt lat="45.293044" lon="7.297482">
        <time>1970-01-01T00:00:00+00:00</time>
        <ele>1723.0</ele>
      </trkpt>
      <trkpt lat="45.292721" lon="7.297661">
        <time>1970-01-01T00:00:00+00:00</time>
        <ele>1734.0</ele>
      </trkpt>
      <trkpt lat="45.292568" lon="7.297693">
        <time>1970-01-01T00:00:00+00:00</time>
        <ele>1740.0</ele>
      </trkpt>
      <trkpt lat="45.292223" lon="7.298097">
        <time>1970-01-01T00:00:00+00:00</time>
        <ele>1757.0</ele>
      </trkpt>
      <trkpt lat="45.292189" lon="7.298099">
        <time>1970-01-01T00:00:00+00:00</time>
        <ele>1758.0</ele>
      </trkpt>
      <trkpt lat="45.292159" lon="7.298073">
        <time>1970-01-01T00:00:00+00:00</time>
        <ele>1758.0</ele>
      </trkpt>
      <trkpt lat="45.292105" lon="7.297974">
        <time>1970-01-01T00:00:00+00:00</time>
        <ele>1758.0</ele>
      </trkpt>
      <trkpt lat="45.292089" lon="7.297887">
        <time>1970-01-01T00:00:00+00:00</time>
        <ele>1758.0</ele>
      </trkpt>
      <trkpt lat="45.291955" lon="7.297729">
        <time>1970-01-01T00:00:00+00:00</time>
        <ele>1760.0</ele>
      </trkpt>
      <trkpt lat="45.291381" lon="7.29749">
        <time>1970-01-01T00:00:00+00:00</time>
        <ele>1770.0</ele>
      </trkpt>
      <trkpt lat="45.291033" lon="7.297386">
        <time>1970-01-01T00:00:00+00:00</time>
        <ele>1779.0</ele>
      </trkpt>
      <trkpt lat="45.2909" lon="7.297428">
        <time>1970-01-01T00:00:00+00:00</time>
        <ele>1785.0</ele>
      </trkpt>
      <trkpt lat="45.290856" lon="7.297549">
        <time>1970-01-01T00:00:00+00:00</time>
        <ele>1789.0</ele>
      </trkpt>
      <trkpt lat="45.290716" lon="7.297639">
        <time>1970-01-01T00:00:00+00:00</time>
        <ele>1797.0</ele>
      </trkpt>
      <trkpt lat="45.29062" lon="7.297731">
        <time>1970-01-01T00:00:00+00:00</time>
        <ele>1804.0</ele>
      </trkpt>
      <trkpt lat="45.290516" lon="7.29774">
        <time>1970-01-01T00:00:00+00:00</time>
        <ele>1810.0</ele>
      </trkpt>
      <trkpt lat="45.290401" lon="7.297627">
        <time>1970-01-01T00:00:00+00:00</time>
        <ele>1815.0</ele>
      </trkpt>
      <trkpt lat="45.290215" lon="7.297341">
        <time>1970-01-01T00:00:00+00:00</time>
        <ele>1819.0</ele>
      </trkpt>
      <trkpt lat="45.29013" lon="7.297267">
        <time>1970-01-01T00:00:00+00:00</time>
        <ele>1821.0</ele>
      </trkpt>
      <trkpt lat="45.290063" lon="7.297237">
        <time>1970-01-01T00:00:00+00:00</time>
        <ele>1823.0</ele>
      </trkpt>
      <trkpt lat="45.289958" lon="7.297136">
        <time>1970-01-01T00:00:00+00:00</time>
        <ele>1826.0</ele>
      </trkpt>
      <trkpt lat="45.289936" lon="7.296808">
        <time>1970-01-01T00:00:00+00:00</time>
        <ele>1826.0</ele>
      </trkpt>
      <trkpt lat="45.289911" lon="7.296717">
        <time>1970-01-01T00:00:00+00:00</time>
        <ele>1827.0</ele>
      </trkpt>
      <trkpt lat="45.289825" lon="7.296735">
        <time>1970-01-01T00:00:00+00:00</time>
        <ele>1831.0</ele>
      </trkpt>
      <trkpt lat="45.289739" lon="7.296642">
        <time>1970-01-01T00:00:00+00:00</time>
        <ele>1834.0</ele>
      </trkpt>
      <trkpt lat="45.289656" lon="7.296618">
        <time>1970-01-01T00:00:00+00:00</time>
        <ele>1837.0</ele>
      </trkpt>
      <trkpt lat="45.289602" lon="7.296507">
        <time>1970-01-01T00:00:00+00:00</time>
        <ele>1839.0</ele>
      </trkpt>
      <trkpt lat="45.289056" lon="7.295966">
        <time>1970-01-01T00:00:00+00:00</time>
        <ele>1854.0</ele>
      </trkpt>
      <trkpt lat="45.288984" lon="7.295802">
        <time>1970-01-01T00:00:00+00:00</time>
        <ele>1854.0</ele>
      </trkpt>
      <trkpt lat="45.288837" lon="7.295614">
        <time>1970-01-01T00:00:00+00:00</time>
        <ele>1856.0</ele>
      </trkpt>
      <trkpt lat="45.288838" lon="7.29542">
        <time>1970-01-01T00:00:00+00:00</time>
        <ele>1855.0</ele>
      </trkpt>
      <trkpt lat="45.288614" lon="7.295092">
        <time>1970-01-01T00:00:00+00:00</time>
        <ele>1855.0</ele>
      </trkpt>
      <trkpt lat="45.288475" lon="7.294968">
        <time>1970-01-01T00:00:00+00:00</time>
        <ele>1856.0</ele>
      </trkpt>
      <trkpt lat="45.288419" lon="7.294802">
        <time>1970-01-01T00:00:00+00:00</time>
        <ele>1856.0</ele>
      </trkpt>
      <trkpt lat="45.288342" lon="7.294726">
        <time>1970-01-01T00:00:00+00:00</time>
        <ele>1858.0</ele>
      </trkpt>
      <trkpt lat="45.288059" lon="7.294624">
        <time>1970-01-01T00:00:00+00:00</time>
        <ele>1867.0</ele>
      </trkpt>
      <trkpt lat="45.287943" lon="7.294688">
        <time>1970-01-01T00:00:00+00:00</time>
        <ele>1870.0</ele>
      </trkpt>
      <trkpt lat="45.287853" lon="7.294802">
        <time>1970-01-01T00:00:00+00:00</time>
        <ele>1873.0</ele>
      </trkpt>
      <trkpt lat="45.287715" lon="7.29469">
        <time>1970-01-01T00:00:00+00:00</time>
        <ele>1877.0</ele>
      </trkpt>
      <trkpt lat="45.287545" lon="7.294607">
        <time>1970-01-01T00:00:00+00:00</time>
        <ele>1883.0</ele>
      </trkpt>
      <trkpt lat="45.287126" lon="7.294531">
        <time>1970-01-01T00:00:00+00:00</time>
        <ele>1892.0</ele>
      </trkpt>
      <trkpt lat="45.286887" lon="7.294326">
        <time>1970-01-01T00:00:00+00:00</time>
        <ele>1895.0</ele>
      </trkpt>
      <trkpt lat="45.286874" lon="7.294274">
        <time>1970-01-01T00:00:00+00:00</time>
        <ele>1896.0</ele>
      </trkpt>
      <trkpt lat="45.286823" lon="7.294188">
        <time>1970-01-01T00:00:00+00:00</time>
        <ele>1896.0</ele>
      </trkpt>
      <trkpt lat="45.28672" lon="7.294078">
        <time>1970-01-01T00:00:00+00:00</time>
        <ele>1896.0</ele>
      </trkpt>
      <trkpt lat="45.28665" lon="7.293871">
        <time>1970-01-01T00:00:00+00:00</time>
        <ele>1898.0</ele>
      </trkpt>
      <trkpt lat="45.286465" lon="7.293595">
        <time>1970-01-01T00:00:00+00:00</time>
        <ele>1907.0</ele>
      </trkpt>
      <trkpt lat="45.286376" lon="7.293372">
        <time>1970-01-01T00:00:00+00:00</time>
        <ele>1919.0</ele>
      </trkpt>
      <trkpt lat="45.286319" lon="7.293292">
        <time>1970-01-01T00:00:00+00:00</time>
        <ele>1921.0</ele>
      </trkpt>
      <trkpt lat="45.286246" lon="7.29327">
        <time>1970-01-01T00:00:00+00:00</time>
        <ele>1922.0</ele>
      </trkpt>
      <trkpt lat="45.286082" lon="7.293039">
        <time>1970-01-01T00:00:00+00:00</time>
        <ele>1932.0</ele>
      </trkpt>
      <trkpt lat="45.286027" lon="7.292836">
        <time>1970-01-01T00:00:00+00:00</time>
        <ele>1940.0</ele>
      </trkpt>
      <trkpt lat="45.285947" lon="7.292833">
        <time>1970-01-01T00:00:00+00:00</time>
        <ele>1942.0</ele>
      </trkpt>
      <trkpt lat="45.285902" lon="7.292743">
        <time>1970-01-01T00:00:00+00:00</time>
        <ele>1945.0</ele>
      </trkpt>
      <trkpt lat="45.285799" lon="7.292776">
        <time>1970-01-01T00:00:00+00:00</time>
        <ele>1945.0</ele>
      </trkpt>
      <trkpt lat="45.285525" lon="7.292777">
        <time>1970-01-01T00:00:00+00:00</time>
        <ele>1946.0</ele>
      </trkpt>
      <trkpt lat="45.285427" lon="7.292664">
        <time>1970-01-01T00:00:00+00:00</time>
        <ele>1947.0</ele>
      </trkpt>
      <trkpt lat="45.285382" lon="7.292552">
        <time>1970-01-01T00:00:00+00:00</time>
        <ele>1948.0</ele>
      </trkpt>
      <trkpt lat="45.28528" lon="7.292432">
        <time>1970-01-01T00:00:00+00:00</time>
        <ele>1949.0</ele>
      </trkpt>
      <trkpt lat="45.285171" lon="7.292058">
        <time>1970-01-01T00:00:00+00:00</time>
        <ele>1953.0</ele>
      </trkpt>
      <trkpt lat="45.285094" lon="7.291977">
        <time>1970-01-01T00:00:00+00:00</time>
        <ele>1955.0</ele>
      </trkpt>
      <trkpt lat="45.285009" lon="7.291984">
        <time>1970-01-01T00:00:00+00:00</time>
        <ele>1958.0</ele>
      </trkpt>
      <trkpt lat="45.284801" lon="7.291805">
        <time>1970-01-01T00:00:00+00:00</time>
        <ele>1966.0</ele>
      </trkpt>
      <trkpt lat="45.284713" lon="7.291812">
        <time>1970-01-01T00:00:00+00:00</time>
        <ele>1969.0</ele>
      </trkpt>
      <trkpt lat="45.284663" lon="7.291866">
        <time>1970-01-01T00:00:00+00:00</time>
        <ele>1969.0</ele>
      </trkpt>
      <trkpt lat="45.284535" lon="7.291795">
        <time>1970-01-01T00:00:00+00:00</time>
        <ele>1972.0</ele>
      </trkpt>
      <trkpt lat="45.284462" lon="7.291823">
        <time>1970-01-01T00:00:00+00:00</time>
        <ele>1973.0</ele>
      </trkpt>
      <trkpt lat="45.284381" lon="7.291787">
        <time>1970-01-01T00:00:00+00:00</time>
        <ele>1974.0</ele>
      </trkpt>
      <trkpt lat="45.284324" lon="7.291719">
        <time>1970-01-01T00:00:00+00:00</time>
        <ele>1976.0</ele>
      </trkpt>
      <trkpt lat="45.28434" lon="7.291583">
        <time>1970-01-01T00:00:00+00:00</time>
        <ele>1978.0</ele>
      </trkpt>
      <trkpt lat="45.284398" lon="7.291447">
        <time>1970-01-01T00:00:00+00:00</time>
        <ele>1980.0</ele>
      </trkpt>
      <trkpt lat="45.284466" lon="7.291349">
        <time>1970-01-01T00:00:00+00:00</time>
        <ele>1980.0</ele>
      </trkpt>
      <trkpt lat="45.284478" lon="7.291239">
        <time>1970-01-01T00:00:00+00:00</time>
        <ele>1982.0</ele>
      </trkpt>
      <trkpt lat="45.284461" lon="7.291146">
        <time>1970-01-01T00:00:00+00:00</time>
        <ele>1984.0</ele>
      </trkpt>
      <trkpt lat="45.284366" lon="7.291064">
        <time>1970-01-01T00:00:00+00:00</time>
        <ele>1986.0</ele>
      </trkpt>
      <trkpt lat="45.284089" lon="7.290955">
        <time>1970-01-01T00:00:00+00:00</time>
        <ele>1989.0</ele>
      </trkpt>
      <trkpt lat="45.284037" lon="7.290873">
        <time>1970-01-01T00:00:00+00:00</time>
        <ele>1991.0</ele>
      </trkpt>
      <trkpt lat="45.284026" lon="7.290764">
        <time>1970-01-01T00:00:00+00:00</time>
        <ele>1994.0</ele>
      </trkpt>
      <trkpt lat="45.283997" lon="7.290694">
        <time>1970-01-01T00:00:00+00:00</time>
        <ele>1996.0</ele>
      </trkpt>
      <trkpt lat="45.284015" lon="7.290601">
        <time>1970-01-01T00:00:00+00:00</time>
        <ele>1999.0</ele>
      </trkpt>
      <trkpt lat="45.284097" lon="7.290593">
        <time>1970-01-01T00:00:00+00:00</time>
        <ele>1999.0</ele>
      </trkpt>
      <trkpt lat="45.284155" lon="7.290544">
        <time>1970-01-01T00:00:00+00:00</time>
        <ele>2000.0</ele>
      </trkpt>
      <trkpt lat="45.284163" lon="7.290418">
        <time>1970-01-01T00:00:00+00:00</time>
        <ele>2004.0</ele>
      </trkpt>
      <trkpt lat="45.284109" lon="7.290312">
        <time>1970-01-01T00:00:00+00:00</time>
        <ele>2007.0</ele>
      </trkpt>
      <trkpt lat="45.284103" lon="7.290174">
        <time>1970-01-01T00:00:00+00:00</time>
        <ele>2011.0</ele>
      </trkpt>
      <trkpt lat="45.284055" lon="7.289987">
        <time>1970-01-01T00:00:00+00:00</time>
        <ele>2017.0</ele>
      </trkpt>
      <trkpt lat="45.284037" lon="7.289833">
        <time>1970-01-01T00:00:00+00:00</time>
        <ele>2022.0</ele>
      </trkpt>
      <trkpt lat="45.284037" lon="7.289629">
        <time>1970-01-01T00:00:00+00:00</time>
        <ele>2024.0</ele>
      </trkpt>
      <trkpt lat="45.284" lon="7.289475">
        <time>1970-01-01T00:00:00+00:00</time>
        <ele>2025.0</ele>
      </trkpt>
      <trkpt lat="45.283903" lon="7.289328">
        <time>1970-01-01T00:00:00+00:00</time>
        <ele>2027.0</ele>
      </trkpt>
      <trkpt lat="45.283912" lon="7.289268">
        <time>1970-01-01T00:00:00+00:00</time>
        <ele>2028.0</ele>
      </trkpt>
      <trkpt lat="45.284023" lon="7.289292">
        <time>1970-01-01T00:00:00+00:00</time>
        <ele>2025.0</ele>
      </trkpt>
      <trkpt lat="45.284006" lon="7.289215">
        <time>1970-01-01T00:00:00+00:00</time>
        <ele>2026.0</ele>
      </trkpt>
      <trkpt lat="45.28408" lon="7.289182">
        <time>1970-01-01T00:00:00+00:00</time>
        <ele>2025.0</ele>
      </trkpt>
      <trkpt lat="45.284163" lon="7.28893">
        <time>1970-01-01T00:00:00+00:00</time>
        <ele>2026.0</ele>
      </trkpt>
      <trkpt lat="45.28424" lon="7.288621">
        <time>1970-01-01T00:00:00+00:00</time>
        <ele>2027.0</ele>
      </trkpt>
      <trkpt lat="45.284238" lon="7.288288">
        <time>1970-01-01T00:00:00+00:00</time>
        <ele>2029.0</ele>
      </trkpt>
      <trkpt lat="45.28414" lon="7.288133">
        <time>1970-01-01T00:00:00+00:00</time>
        <ele>2032.0</ele>
      </trkpt>
      <trkpt lat="45.284109" lon="7.288019">
        <time>1970-01-01T00:00:00+00:00</time>
        <ele>2033.0</ele>
      </trkpt>
      <trkpt lat="45.28402" lon="7.287934">
        <time>1970-01-01T00:00:00+00:00</time>
        <ele>2035.0</ele>
      </trkpt>
      <trkpt lat="45.28396" lon="7.287902">
        <time>1970-01-01T00:00:00+00:00</time>
        <ele>2037.0</ele>
      </trkpt>
      <trkpt lat="45.283936" lon="7.287855">
        <time>1970-01-01T00:00:00+00:00</time>
        <ele>2039.0</ele>
      </trkpt>
      <trkpt lat="45.28393" lon="7.287753">
        <time>1970-01-01T00:00:00+00:00</time>
        <ele>2039.0</ele>
      </trkpt>
      <trkpt lat="45.28387" lon="7.28768">
        <time>1970-01-01T00:00:00+00:00</time>
        <ele>2042.0</ele>
      </trkpt>
      <trkpt lat="45.28385" lon="7.287566">
        <time>1970-01-01T00:00:00+00:00</time>
        <ele>2043.0</ele>
      </trkpt>
      <trkpt lat="45.28385" lon="7.287119">
        <time>1970-01-01T00:00:00+00:00</time>
        <ele>2047.0</ele>
      </trkpt>
      <trkpt lat="45.283825" lon="7.286993">
        <time>1970-01-01T00:00:00+00:00</time>
        <ele>2048.0</ele>
      </trkpt>
      <trkpt lat="45.28373" lon="7.286733">
        <time>1970-01-01T00:00:00+00:00</time>
        <ele>2051.0</ele>
      </trkpt>
      <trkpt lat="45.283682" lon="7.286725">
        <time>1970-01-01T00:00:00+00:00</time>
        <ele>2052.0</ele>
      </trkpt>
      <trkpt lat="45.283607" lon="7.286534">
        <time>1970-01-01T00:00:00+00:00</time>
        <ele>2053.0</ele>
      </trkpt>
      <trkpt lat="45.283602" lon="7.286399">
        <time>1970-01-01T00:00:00+00:00</time>
        <ele>2054.0</ele>
      </trkpt>
      <trkpt lat="45.283556" lon="7.286229">
        <time>1970-01-01T00:00:00+00:00</time>
        <ele>2056.0</ele>
      </trkpt>
      <trkpt lat="45.283544" lon="7.286054">
        <time>1970-01-01T00:00:00+00:00</time>
        <ele>2058.0</ele>
      </trkpt>
      <trkpt lat="45.283453" lon="7.285851">
        <time>1970-01-01T00:00:00+00:00</time>
        <ele>2062.0</ele>
      </trkpt>
      <trkpt lat="45.283481" lon="7.285692">
        <time>1970-01-01T00:00:00+00:00</time>
        <ele>2064.0</ele>
      </trkpt>
      <trkpt lat="45.283553" lon="7.285533">
        <time>1970-01-01T00:00:00+00:00</time>
        <ele>2064.0</ele>
      </trkpt>
      <trkpt lat="45.283596" lon="7.285326">
        <time>1970-01-01T00:00:00+00:00</time>
        <ele>2067.0</ele>
      </trkpt>
      <trkpt lat="45.283673" lon="7.285159">
        <time>1970-01-01T00:00:00+00:00</time>
        <ele>2067.0</ele>
      </trkpt>
      <trkpt lat="45.283702" lon="7.285005">
        <time>1970-01-01T00:00:00+00:00</time>
        <ele>2068.0</ele>
      </trkpt>
      <trkpt lat="45.283687" lon="7.28483">
        <time>1970-01-01T00:00:00+00:00</time>
        <ele>2070.0</ele>
      </trkpt>
      <trkpt lat="45.283693" lon="7.28459">
        <time>1970-01-01T00:00:00+00:00</time>
        <ele>2072.0</ele>
      </trkpt>
      <trkpt lat="45.283633" lon="7.284545">
        <time>1970-01-01T00:00:00+00:00</time>
        <ele>2074.0</ele>
      </trkpt>
      <trkpt lat="45.28355" lon="7.284517">
        <time>1970-01-01T00:00:00+00:00</time>
        <ele>2076.0</ele>
      </trkpt>
      <trkpt lat="45.283567" lon="7.284448">
        <time>1970-01-01T00:00:00+00:00</time>
        <ele>2077.0</ele>
      </trkpt>
      <trkpt lat="45.283547" lon="7.284363">
        <time>1970-01-01T00:00:00+00:00</time>
        <ele>2078.0</ele>
      </trkpt>
      <trkpt lat="45.283473" lon="7.284367">
        <time>1970-01-01T00:00:00+00:00</time>
        <ele>2079.0</ele>
      </trkpt>
      <trkpt lat="45.283447" lon="7.284245">
        <time>1970-01-01T00:00:00+00:00</time>
        <ele>2082.0</ele>
      </trkpt>
      <trkpt lat="45.283398" lon="7.284192">
        <time>1970-01-01T00:00:00+00:00</time>
        <ele>2083.0</ele>
      </trkpt>
      <trkpt lat="45.28345" lon="7.28409">
        <time>1970-01-01T00:00:00+00:00</time>
        <ele>2084.0</ele>
      </trkpt>
      <trkpt lat="45.283447" lon="7.283989">
        <time>1970-01-01T00:00:00+00:00</time>
        <ele>2085.0</ele>
      </trkpt>
      <trkpt lat="45.28341" lon="7.283928">
        <time>1970-01-01T00:00:00+00:00</time>
        <ele>2086.0</ele>
      </trkpt>
      <trkpt lat="45.283513" lon="7.283793">
        <time>1970-01-01T00:00:00+00:00</time>
        <ele>2089.0</ele>
      </trkpt>
      <trkpt lat="45.283607" lon="7.283773">
        <time>1970-01-01T00:00:00+00:00</time>
        <ele>2089.0</ele>
      </trkpt>
      <trkpt lat="45.283642" lon="7.283696">
        <time>1970-01-01T00:00:00+00:00</time>
        <ele>2091.0</ele>
      </trkpt>
      <trkpt lat="45.283647" lon="7.283554">
        <time>1970-01-01T00:00:00+00:00</time>
        <ele>2096.0</ele>
      </trkpt>
      <trkpt lat="45.283596" lon="7.283423">
        <time>1970-01-01T00:00:00+00:00</time>
        <ele>2101.0</ele>
      </trkpt>
      <trkpt lat="45.283479" lon="7.283314">
        <time>1970-01-01T00:00:00+00:00</time>
        <ele>2105.0</ele>
      </trkpt>
      <trkpt lat="45.283357" lon="7.283167">
        <time>1970-01-01T00:00:00+00:00</time>
        <ele>2109.0</ele>
      </trkpt>
      <trkpt lat="45.283304" lon="7.283066">
        <time>1970-01-01T00:00:00+00:00</time>
        <ele>2110.0</ele>
      </trkpt>
      <trkpt lat="45.283235" lon="7.283058">
        <time>1970-01-01T00:00:00+00:00</time>
        <ele>2110.0</ele>
      </trkpt>
      <trkpt lat="45.283138" lon="7.282923">
        <time>1970-01-01T00:00:00+00:00</time>
        <ele>2111.0</ele>
      </trkpt>
      <trkpt lat="45.282807" lon="7.282696">
        <time>1970-01-01T00:00:00+00:00</time>
        <ele>2116.0</ele>
      </trkpt>
      <trkpt lat="45.282552" lon="7.282127">
        <time>1970-01-01T00:00:00+00:00</time>
        <ele>2122.0</ele>
      </trkpt>
      <trkpt lat="45.282515" lon="7.281956">
        <time>1970-01-01T00:00:00+00:00</time>
        <ele>2124.0</ele>
      </trkpt>
      <trkpt lat="45.282335" lon="7.281814">
        <time>1970-01-01T00:00:00+00:00</time>
        <ele>2128.0</ele>
      </trkpt>
      <trkpt lat="45.282278" lon="7.281716">
        <time>1970-01-01T00:00:00+00:00</time>
        <ele>2129.0</ele>
      </trkpt>
      <trkpt lat="45.281997" lon="7.281533">
        <time>1970-01-01T00:00:00+00:00</time>
        <ele>2135.0</ele>
      </trkpt>
      <trkpt lat="45.281646" lon="7.2807">
        <time>1970-01-01T00:00:00+00:00</time>
        <ele>2152.0</ele>
      </trkpt>
      <trkpt lat="45.281485" lon="7.279907">
        <time>1970-01-01T00:00:00+00:00</time>
        <ele>2161.0</ele>
      </trkpt>
      <trkpt lat="45.281465" lon="7.279562">
        <time>1970-01-01T00:00:00+00:00</time>
        <ele>2162.0</ele>
      </trkpt>
      <trkpt lat="45.281331" lon="7.279265">
        <time>1970-01-01T00:00:00+00:00</time>
        <ele>2166.0</ele>
      </trkpt>
      <trkpt lat="45.281277" lon="7.279265">
        <time>1970-01-01T00:00:00+00:00</time>
        <ele>2168.0</ele>
      </trkpt>
      <trkpt lat="45.281144" lon="7.279063">
        <time>1970-01-01T00:00:00+00:00</time>
        <ele>2172.0</ele>
      </trkpt>
      <trkpt lat="45.281098" lon="7.279018">
        <time>1970-01-01T00:00:00+00:00</time>
        <ele>2172.0</ele>
      </trkpt>
      <trkpt lat="45.281029" lon="7.27888">
        <time>1970-01-01T00:00:00+00:00</time>
        <ele>2173.0</ele>
      </trkpt>
      <trkpt lat="45.280943" lon="7.278807">
        <time>1970-01-01T00:00:00+00:00</time>
        <ele>2174.0</ele>
      </trkpt>
      <trkpt lat="45.280675" lon="7.278721">
        <time>1970-01-01T00:00:00+00:00</time>
        <ele>2181.0</ele>
      </trkpt>
      <trkpt lat="45.280537" lon="7.278591">
        <time>1970-01-01T00:00:00+00:00</time>
        <ele>2184.0</ele>
      </trkpt>
      <trkpt lat="45.280411" lon="7.278518">
        <time>1970-01-01T00:00:00+00:00</time>
        <ele>2187.0</ele>
      </trkpt>
      <trkpt lat="45.280325" lon="7.278567">
        <time>1970-01-01T00:00:00+00:00</time>
        <ele>2189.0</ele>
      </trkpt>
      <trkpt lat="45.280225" lon="7.278542">
        <time>1970-01-01T00:00:00+00:00</time>
        <ele>2191.0</ele>
      </trkpt>
      <trkpt lat="45.280108" lon="7.278477">
        <time>1970-01-01T00:00:00+00:00</time>
        <ele>2194.0</ele>
      </trkpt>
      <trkpt lat="45.280002" lon="7.278502">
        <time>1970-01-01T00:00:00+00:00</time>
        <ele>2199.0</ele>
      </trkpt>
      <trkpt lat="45.279848" lon="7.278453">
        <time>1970-01-01T00:00:00+00:00</time>
        <ele>2204.0</ele>
      </trkpt>
      <trkpt lat="45.279691" lon="7.278302">
        <time>1970-01-01T00:00:00+00:00</time>
        <ele>2207.0</ele>
      </trkpt>
      <trkpt lat="45.279582" lon="7.278278">
        <time>1970-01-01T00:00:00+00:00</time>
        <ele>2211.0</ele>
      </trkpt>
      <trkpt lat="45.279296" lon="7.278059">
        <time>1970-01-01T00:00:00+00:00</time>
        <ele>2221.0</ele>
      </trkpt>
      <trkpt lat="45.279236" lon="7.277981">
        <time>1970-01-01T00:00:00+00:00</time>
        <ele>2222.0</ele>
      </trkpt>
      <trkpt lat="45.279213" lon="7.277815">
        <time>1970-01-01T00:00:00+00:00</time>
        <ele>2221.0</ele>
      </trkpt>
      <trkpt lat="45.279376" lon="7.277624">
        <time>1970-01-01T00:00:00+00:00</time>
        <ele>2218.0</ele>
      </trkpt>
      <trkpt lat="45.279382" lon="7.277506">
        <time>1970-01-01T00:00:00+00:00</time>
        <ele>2222.0</ele>
      </trkpt>
      <trkpt lat="45.279339" lon="7.277347">
        <time>1970-01-01T00:00:00+00:00</time>
        <ele>2228.0</ele>
      </trkpt>
      <trkpt lat="45.279379" lon="7.277079">
        <time>1970-01-01T00:00:00+00:00</time>
        <ele>2234.0</ele>
      </trkpt>
      <trkpt lat="45.279352" lon="7.277032">
        <time>1970-01-01T00:00:00+00:00</time>
        <ele>2236.0</ele>
      </trkpt>
      <trkpt lat="45.279385" lon="7.276999">
        <time>1970-01-01T00:00:00+00:00</time>
        <ele>2235.0</ele>
      </trkpt>
      <trkpt lat="45.279347" lon="7.276847">
        <time>1970-01-01T00:00:00+00:00</time>
        <ele>2240.0</ele>
      </trkpt>
      <trkpt lat="45.279313" lon="7.27679">
        <time>1970-01-01T00:00:00+00:00</time>
        <ele>2242.0</ele>
      </trkpt>
      <trkpt lat="45.279367" lon="7.276689">
        <time>1970-01-01T00:00:00+00:00</time>
        <ele>2243.0</ele>
      </trkpt>
      <trkpt lat="45.279422" lon="7.276453">
        <time>1970-01-01T00:00:00+00:00</time>
        <ele>2247.0</ele>
      </trkpt>
      <trkpt lat="45.279465" lon="7.276396">
        <time>1970-01-01T00:00:00+00:00</time>
        <ele>2247.0</ele>
      </trkpt>
      <trkpt lat="45.279545" lon="7.276445">
        <time>1970-01-01T00:00:00+00:00</time>
        <ele>2243.0</ele>
      </trkpt>
      <trkpt lat="45.279616" lon="7.2764">
        <time>1970-01-01T00:00:00+00:00</time>
        <ele>2243.0</ele>
      </trkpt>
      <trkpt lat="45.279673" lon="7.27616">
        <time>1970-01-01T00:00:00+00:00</time>
        <ele>2245.0</ele>
      </trkpt>
      <trkpt lat="45.279771" lon="7.275983">
        <time>1970-01-01T00:00:00+00:00</time>
        <ele>2248.0</ele>
      </trkpt>
      <trkpt lat="45.279749" lon="7.275872">
        <time>1970-01-01T00:00:00+00:00</time>
        <ele>2251.0</ele>
      </trkpt>
      <trkpt lat="45.279825" lon="7.275631">
        <time>1970-01-01T00:00:00+00:00</time>
        <ele>2256.0</ele>
      </trkpt>
      <trkpt lat="45.279871" lon="7.275371">
        <time>1970-01-01T00:00:00+00:00</time>
        <ele>2260.0</ele>
      </trkpt>
      <trkpt lat="45.279899" lon="7.275172">
        <time>1970-01-01T00:00:00+00:00</time>
        <ele>2264.0</ele>
      </trkpt>
      <trkpt lat="45.279899" lon="7.274965">
        <time>1970-01-01T00:00:00+00:00</time>
        <ele>2268.0</ele>
      </trkpt>
      <trkpt lat="45.279951" lon="7.274672">
        <time>1970-01-01T00:00:00+00:00</time>
        <ele>2271.0</ele>
      </trkpt>
      <trkpt lat="45.280062" lon="7.274241">
        <time>1970-01-01T00:00:00+00:00</time>
        <ele>2276.0</ele>
      </trkpt>
      <trkpt lat="45.279979" lon="7.274119">
        <time>1970-01-01T00:00:00+00:00</time>
        <ele>2279.0</ele>
      </trkpt>
      <trkpt lat="45.279994" lon="7.273977">
        <time>1970-01-01T00:00:00+00:00</time>
        <ele>2281.0</ele>
      </trkpt>
      <trkpt lat="45.280045" lon="7.273818">
        <time>1970-01-01T00:00:00+00:00</time>
        <ele>2284.0</ele>
      </trkpt>
      <trkpt lat="45.280148" lon="7.273672">
        <time>1970-01-01T00:00:00+00:00</time>
        <ele>2286.0</ele>
      </trkpt>
      <trkpt lat="45.280191" lon="7.273404">
        <time>1970-01-01T00:00:00+00:00</time>
        <ele>2291.0</ele>
      </trkpt>
      <trkpt lat="45.280301" lon="7.273044">
        <time>1970-01-01T00:00:00+00:00</time>
        <ele>2295.0</ele>
      </trkpt>
      <trkpt lat="45.280467" lon="7.272816">
        <time>1970-01-01T00:00:00+00:00</time>
        <ele>2299.0</ele>
      </trkpt>
      <trkpt lat="45.280487" lon="7.272686">
        <time>1970-01-01T00:00:00+00:00</time>
        <ele>2301.0</ele>
      </trkpt>
      <trkpt lat="45.280489" lon="7.272544">
        <time>1970-01-01T00:00:00+00:00</time>
        <ele>2303.0</ele>
      </trkpt>
      <trkpt lat="45.280469" lon="7.272394">
        <time>1970-01-01T00:00:00+00:00</time>
        <ele>2306.0</ele>
      </trkpt>
      <trkpt lat="45.280458" lon="7.271581">
        <time>1970-01-01T00:00:00+00:00</time>
        <ele>2315.0</ele>
      </trkpt>
      <trkpt lat="45.280535" lon="7.271365">
        <time>1970-01-01T00:00:00+00:00</time>
        <ele>2321.0</ele>
      </trkpt>
      <trkpt lat="45.280641" lon="7.271207">
        <time>1970-01-01T00:00:00+00:00</time>
        <ele>2327.0</ele>
      </trkpt>
      <trkpt lat="45.280704" lon="7.271239">
        <time>1970-01-01T00:00:00+00:00</time>
        <ele>2325.0</ele>
      </trkpt>
      <trkpt lat="45.280816" lon="7.271121">
        <time>1970-01-01T00:00:00+00:00</time>
        <ele>2332.0</ele>
      </trkpt>
      <trkpt lat="45.280878" lon="7.271154">
        <time>1970-01-01T00:00:00+00:00</time>
        <ele>2330.0</ele>
      </trkpt>
      <trkpt lat="45.280984" lon="7.27106">
        <time>1970-01-01T00:00:00+00:00</time>
        <ele>2335.0</ele>
      </trkpt>
      <trkpt lat="45.281062" lon="7.27108">
        <time>1970-01-01T00:00:00+00:00</time>
        <ele>2335.0</ele>
      </trkpt>
      <trkpt lat="45.281133" lon="7.271036">
        <time>1970-01-01T00:00:00+00:00</time>
        <ele>2337.0</ele>
      </trkpt>
      <trkpt lat="45.281227" lon="7.27104">
        <time>1970-01-01T00:00:00+00:00</time>
        <ele>2338.0</ele>
      </trkpt>
      <trkpt lat="45.281288" lon="7.270999">
        <time>1970-01-01T00:00:00+00:00</time>
        <ele>2340.0</ele>
      </trkpt>
      <trkpt lat="45.281373" lon="7.271048">
        <time>1970-01-01T00:00:00+00:00</time>
        <ele>2338.0</ele>
      </trkpt>
      <trkpt lat="45.281436" lon="7.271011">
        <time>1970-01-01T00:00:00+00:00</time>
        <ele>2340.0</ele>
      </trkpt>
      <trkpt lat="45.281516" lon="7.271044">
        <time>1970-01-01T00:00:00+00:00</time>
        <ele>2338.0</ele>
      </trkpt>
      <trkpt lat="45.281599" lon="7.270979">
        <time>1970-01-01T00:00:00+00:00</time>
        <ele>2341.0</ele>
      </trkpt>
      <trkpt lat="45.281645" lon="7.271032">
        <time>1970-01-01T00:00:00+00:00</time>
        <ele>2337.0</ele>
      </trkpt>
      <trkpt lat="45.281734" lon="7.271072">
        <time>1970-01-01T00:00:00+00:00</time>
        <ele>2335.0</ele>
      </trkpt>
      <trkpt lat="45.281911" lon="7.271056">
        <time>1970-01-01T00:00:00+00:00</time>
        <ele>2336.0</ele>
      </trkpt>
      <trkpt lat="45.281945" lon="7.270999">
        <time>1970-01-01T00:00:00+00:00</time>
        <ele>2339.0</ele>
      </trkpt>
      <trkpt lat="45.282026" lon="7.27104">
        <time>1970-01-01T00:00:00+00:00</time>
        <ele>2339.0</ele>
      </trkpt>
      <trkpt lat="45.282074" lon="7.27093">
        <time>1970-01-01T00:00:00+00:00</time>
        <ele>2347.0</ele>
      </trkpt>
      <trkpt lat="45.28216" lon="7.270906">
        <time>1970-01-01T00:00:00+00:00</time>
        <ele>2350.0</ele>
      </trkpt>
      <trkpt lat="45.282352" lon="7.270694">
        <time>1970-01-01T00:00:00+00:00</time>
        <ele>2367.0</ele>
      </trkpt>
      <trkpt lat="45.282541" lon="7.27065">
        <time>1970-01-01T00:00:00+00:00</time>
        <ele>2372.0</ele>
      </trkpt>
      <trkpt lat="45.282553" lon="7.27056">
        <time>1970-01-01T00:00:00+00:00</time>
        <ele>2378.0</ele>
      </trkpt>
      <trkpt lat="45.282602" lon="7.270422">
        <time>1970-01-01T00:00:00+00:00</time>
        <ele>2386.0</ele>
      </trkpt>
      <trkpt lat="45.28259" lon="7.270304">
        <time>1970-01-01T00:00:00+00:00</time>
        <ele>2392.0</ele>
      </trkpt>
      <trkpt lat="45.282713" lon="7.270247">
        <time>1970-01-01T00:00:00+00:00</time>
        <ele>2396.0</ele>
      </trkpt>
      <trkpt lat="45.28279" lon="7.270105">
        <time>1970-01-01T00:00:00+00:00</time>
        <ele>2401.0</ele>
      </trkpt>
      <trkpt lat="45.282862" lon="7.27008">
        <time>1970-01-01T00:00:00+00:00</time>
        <ele>2402.0</ele>
      </trkpt>
      <trkpt lat="45.28291" lon="7.269995">
        <time>1970-01-01T00:00:00+00:00</time>
        <ele>2405.0</ele>
      </trkpt>
      <trkpt lat="45.282962" lon="7.270011">
        <time>1970-01-01T00:00:00+00:00</time>
        <ele>2406.0</ele>
      </trkpt>
      <trkpt lat="45.282999" lon="7.269914">
        <time>1970-01-01T00:00:00+00:00</time>
        <ele>2409.0</ele>
      </trkpt>
      <trkpt lat="45.283105" lon="7.269877">
        <time>1970-01-01T00:00:00+00:00</time>
        <ele>2413.0</ele>
      </trkpt>
      <trkpt lat="45.283191" lon="7.269788">
        <time>1970-01-01T00:00:00+00:00</time>
        <ele>2419.0</ele>
      </trkpt>
      <trkpt lat="45.283297" lon="7.26982">
        <time>1970-01-01T00:00:00+00:00</time>
        <ele>2422.0</ele>
      </trkpt>
      <trkpt lat="45.28336" lon="7.269751">
        <time>1970-01-01T00:00:00+00:00</time>
        <ele>2427.0</ele>
      </trkpt>
      <trkpt lat="45.283411" lon="7.2698">
        <time>1970-01-01T00:00:00+00:00</time>
        <ele>2428.0</ele>
      </trkpt>
      <trkpt lat="45.283494" lon="7.269731">
        <time>1970-01-01T00:00:00+00:00</time>
        <ele>2433.0</ele>
      </trkpt>
      <trkpt lat="45.283488" lon="7.269601">
        <time>1970-01-01T00:00:00+00:00</time>
        <ele>2437.0</ele>
      </trkpt>
      <trkpt lat="45.283577" lon="7.269597">
        <time>1970-01-01T00:00:00+00:00</time>
        <ele>2440.0</ele>
      </trkpt>
      <trkpt lat="45.283674" lon="7.269487">
        <time>1970-01-01T00:00:00+00:00</time>
        <ele>2451.0</ele>
      </trkpt>
      <trkpt lat="45.283686" lon="7.269345">
        <time>1970-01-01T00:00:00+00:00</time>
        <ele>2458.0</ele>
      </trkpt>
      <trkpt lat="45.28378" lon="7.269377">
        <time>1970-01-01T00:00:00+00:00</time>
        <ele>2463.0</ele>
      </trkpt>
      <trkpt lat="45.2838" lon="7.269267">
        <time>1970-01-01T00:00:00+00:00</time>
        <ele>2468.0</ele>
      </trkpt>
      <trkpt lat="45.283846" lon="7.269182">
        <time>1970-01-01T00:00:00+00:00</time>
        <ele>2475.0</ele>
      </trkpt>
      <trkpt lat="45.283846" lon="7.269088">
        <time>1970-01-01T00:00:00+00:00</time>
        <ele>2479.0</ele>
      </trkpt>
      <trkpt lat="45.283923" lon="7.269064">
        <time>1970-01-01T00:00:00+00:00</time>
        <ele>2486.0</ele>
      </trkpt>
      <trkpt lat="45.283912" lon="7.268975">
        <time>1970-01-01T00:00:00+00:00</time>
        <ele>2490.0</ele>
      </trkpt>
      <trkpt lat="45.283989" lon="7.268975">
        <time>1970-01-01T00:00:00+00:00</time>
        <ele>2496.0</ele>
      </trkpt>
      <trkpt lat="45.284023" lon="7.268897">
        <time>1970-01-01T00:00:00+00:00</time>
        <ele>2502.0</ele>
      </trkpt>
      <trkpt lat="45.28398" lon="7.268828">
        <time>1970-01-01T00:00:00+00:00</time>
        <ele>2503.0</ele>
      </trkpt>
      <trkpt lat="45.28402" lon="7.268767">
        <time>1970-01-01T00:00:00+00:00</time>
        <ele>2509.0</ele>
      </trkpt>
      <trkpt lat="45.283952" lon="7.26871">
        <time>1970-01-01T00:00:00+00:00</time>
        <ele>2508.0</ele>
      </trkpt>
      <trkpt lat="45.284012" lon="7.268592">
        <time>1970-01-01T00:00:00+00:00</time>
        <ele>2519.0</ele>
      </trkpt>
      <trkpt lat="45.284089" lon="7.268523">
        <time>1970-01-01T00:00:00+00:00</time>
        <ele>2524.0</ele>
      </trkpt>
      <trkpt lat="45.284215" lon="7.268479">
        <time>1970-01-01T00:00:00+00:00</time>
        <ele>2530.0</ele>
      </trkpt>
      <trkpt lat="45.284344" lon="7.26832">
        <time>1970-01-01T00:00:00+00:00</time>
        <ele>2540.0</ele>
      </trkpt>
      <trkpt lat="45.284473" lon="7.268296">
        <time>1970-01-01T00:00:00+00:00</time>
        <ele>2545.0</ele>
      </trkpt>
      <trkpt lat="45.284541" lon="7.268215">
        <time>1970-01-01T00:00:00+00:00</time>
        <ele>2552.0</ele>
      </trkpt>
      <trkpt lat="45.284638" lon="7.268186">
        <time>1970-01-01T00:00:00+00:00</time>
        <ele>2557.0</ele>
      </trkpt>
      <trkpt lat="45.28469" lon="7.268247">
        <time>1970-01-01T00:00:00+00:00</time>
        <ele>2555.0</ele>
      </trkpt>
      <trkpt lat="45.284842" lon="7.268036">
        <time>1970-01-01T00:00:00+00:00</time>
        <ele>2576.0</ele>
      </trkpt>
      <trkpt lat="45.284804" lon="7.267865">
        <time>1970-01-01T00:00:00+00:00</time>
        <ele>2583.0</ele>
      </trkpt>
      <trkpt lat="45.284761" lon="7.267796">
        <time>1970-01-01T00:00:00+00:00</time>
        <ele>2584.0</ele>
      </trkpt>
      <trkpt lat="45.28477" lon="7.267597">
        <time>1970-01-01T00:00:00+00:00</time>
        <ele>2588.0</ele>
      </trkpt>
      <trkpt lat="45.284804" lon="7.26745">
        <time>1970-01-01T00:00:00+00:00</time>
        <ele>2590.0</ele>
      </trkpt>
      <trkpt lat="45.284842" lon="7.267385">
        <time>1970-01-01T00:00:00+00:00</time>
        <ele>2592.0</ele>
      </trkpt>
      <trkpt lat="45.284859" lon="7.267467">
        <time>1970-01-01T00:00:00+00:00</time>
        <ele>2594.0</ele>
      </trkpt>
      <trkpt lat="45.284993" lon="7.267288">
        <time>1970-01-01T00:00:00+00:00</time>
        <ele>2601.0</ele>
      </trkpt>
      <trkpt lat="45.285162" lon="7.267353">
        <time>1970-01-01T00:00:00+00:00</time>
        <ele>2615.0</ele>
      </trkpt>
      <trkpt lat="45.285156" lon="7.267426">
        <time>1970-01-01T00:00:00+00:00</time>
        <ele>2616.0</ele>
      </trkpt>
      <trkpt lat="45.285216" lon="7.26745">
        <time>1970-01-01T00:00:00+00:00</time>
        <ele>2621.0</ele>
      </trkpt>
      <trkpt lat="45.285271" lon="7.267373">
        <time>1970-01-01T00:00:00+00:00</time>
        <ele>2622.0</ele>
      </trkpt>
      <trkpt lat="45.285391" lon="7.267434">
        <time>1970-01-01T00:00:00+00:00</time>
        <ele>2633.0</ele>
      </trkpt>
      <trkpt lat="45.285399" lon="7.267581">
        <time>1970-01-01T00:00:00+00:00</time>
        <ele>2638.0</ele>
      </trkpt>
      <trkpt lat="45.285499" lon="7.267528">
        <time>1970-01-01T00:00:00+00:00</time>
        <ele>2646.0</ele>
      </trkpt>
      <trkpt lat="45.285557" lon="7.267589">
        <time>1970-01-01T00:00:00+00:00</time>
        <ele>2653.0</ele>
      </trkpt>
      <trkpt lat="45.285648" lon="7.267536">
        <time>1970-01-01T00:00:00+00:00</time>
        <ele>2659.0</ele>
      </trkpt>
      <trkpt lat="45.285671" lon="7.267609">
        <time>1970-01-01T00:00:00+00:00</time>
        <ele>2664.0</ele>
      </trkpt>
      <trkpt lat="45.28572" lon="7.267609">
        <time>1970-01-01T00:00:00+00:00</time>
        <ele>2668.0</ele>
      </trkpt>
      <trkpt lat="45.285748" lon="7.267662">
        <time>1970-01-01T00:00:00+00:00</time>
        <ele>2671.0</ele>
      </trkpt>
      <trkpt lat="45.28584" lon="7.267682">
        <time>1970-01-01T00:00:00+00:00</time>
        <ele>2677.0</ele>
      </trkpt>
      <trkpt lat="45.285843" lon="7.267739">
        <time>1970-01-01T00:00:00+00:00</time>
        <ele>2680.0</ele>
      </trkpt>
      <trkpt lat="45.285763" lon="7.267829">
        <time>1970-01-01T00:00:00+00:00</time>
        <ele>2676.0</ele>
      </trkpt>
      <trkpt lat="45.285734" lon="7.267898">
        <time>1970-01-01T00:00:00+00:00</time>
        <ele>2674.0</ele>
      </trkpt>
      <trkpt lat="45.285825" lon="7.267963">
        <time>1970-01-01T00:00:00+00:00</time>
        <ele>2679.0</ele>
      </trkpt>
      <trkpt lat="45.285931" lon="7.267877">
        <time>1970-01-01T00:00:00+00:00</time>
        <ele>2686.0</ele>
      </trkpt>
      <trkpt lat="45.286017" lon="7.267873">
        <time>1970-01-01T00:00:00+00:00</time>
        <ele>2692.0</ele>
      </trkpt>
      <trkpt lat="45.286091" lon="7.267755">
        <time>1970-01-01T00:00:00+00:00</time>
        <ele>2696.0</ele>
      </trkpt>
      <trkpt lat="45.286083" lon="7.267885">
        <time>1970-01-01T00:00:00+00:00</time>
        <ele>2697.0</ele>
      </trkpt>
      <trkpt lat="45.286157" lon="7.2678">
        <time>1970-01-01T00:00:00+00:00</time>
        <ele>2701.0</ele>
      </trkpt>
      <trkpt lat="45.286283" lon="7.267784">
        <time>1970-01-01T00:00:00+00:00</time>
        <ele>2708.0</ele>
      </trkpt>
      <trkpt lat="45.28626" lon="7.267877">
        <time>1970-01-01T00:00:00+00:00</time>
        <ele>2709.0</ele>
      </trkpt>
      <trkpt lat="45.286317" lon="7.267869">
        <time>1970-01-01T00:00:00+00:00</time>
        <ele>2712.0</ele>
      </trkpt>
      <trkpt lat="45.286292" lon="7.267995">
        <time>1970-01-01T00:00:00+00:00</time>
        <ele>2714.0</ele>
      </trkpt>
      <trkpt lat="45.286366" lon="7.267987">
        <time>1970-01-01T00:00:00+00:00</time>
        <ele>2718.0</ele>
      </trkpt>
      <trkpt lat="45.286335" lon="7.268109">
        <time>1970-01-01T00:00:00+00:00</time>
        <ele>2718.0</ele>
      </trkpt>
      <trkpt lat="45.286547" lon="7.268097">
        <time>1970-01-01T00:00:00+00:00</time>
        <ele>2730.0</ele>
      </trkpt>
      <trkpt lat="45.286544" lon="7.268154">
        <time>1970-01-01T00:00:00+00:00</time>
        <ele>2731.0</ele>
      </trkpt>
      <trkpt lat="45.286953" lon="7.268178">
        <time>1970-01-01T00:00:00+00:00</time>
        <ele>2742.0</ele>
      </trkpt>
      <trkpt lat="45.28703" lon="7.268085">
        <time>1970-01-01T00:00:00+00:00</time>
        <ele>2742.0</ele>
      </trkpt>
      <trkpt lat="45.287128" lon="7.268142">
        <time>1970-01-01T00:00:00+00:00</time>
        <ele>2744.0</ele>
      </trkpt>
      <trkpt lat="45.287222" lon="7.268081">
        <time>1970-01-01T00:00:00+00:00</time>
        <ele>2745.0</ele>
      </trkpt>
      <trkpt lat="45.287354" lon="7.268113">
        <time>1970-01-01T00:00:00+00:00</time>
        <ele>2745.0</ele>
      </trkpt>
      <trkpt lat="45.287386" lon="7.268191">
        <time>1970-01-01T00:00:00+00:00</time>
        <ele>2746.0</ele>
      </trkpt>
      <trkpt lat="45.287382" lon="7.268249">
        <time>1970-01-01T00:00:00+00:00</time>
        <ele>2746.0</ele>
      </trkpt>
      <trkpt lat="45.287368" lon="7.268264">
        <time>1970-01-01T00:00:00+00:00</time>
        <ele>2746.0</ele>
      </trkpt>
      <trkpt lat="45.287368" lon="7.268264">
        <time>1970-01-01T00:00:00+00:00</time>
        <ele>2746.0</ele>
      </trkpt>
      <trkpt lat="45.287382" lon="7.268249">
        <time>1970-01-01T00:00:00+00:00</time>
        <ele>2746.0</ele>
      </trkpt>
      <trkpt lat="45.287386" lon="7.268191">
        <time>1970-01-01T00:00:00+00:00</time>
        <ele>2746.0</ele>
      </trkpt>
      <trkpt lat="45.287354" lon="7.268113">
        <time>1970-01-01T00:00:00+00:00</time>
        <ele>2745.0</ele>
      </trkpt>
      <trkpt lat="45.287222" lon="7.268081">
        <time>1970-01-01T00:00:00+00:00</time>
        <ele>2745.0</ele>
      </trkpt>
      <trkpt lat="45.287128" lon="7.268142">
        <time>1970-01-01T00:00:00+00:00</time>
        <ele>2744.0</ele>
      </trkpt>
      <trkpt lat="45.28703" lon="7.268085">
        <time>1970-01-01T00:00:00+00:00</time>
        <ele>2742.0</ele>
      </trkpt>
      <trkpt lat="45.286953" lon="7.268178">
        <time>1970-01-01T00:00:00+00:00</time>
        <ele>2742.0</ele>
      </trkpt>
      <trkpt lat="45.286544" lon="7.268154">
        <time>1970-01-01T00:00:00+00:00</time>
        <ele>2731.0</ele>
      </trkpt>
      <trkpt lat="45.286547" lon="7.268097">
        <time>1970-01-01T00:00:00+00:00</time>
        <ele>2730.0</ele>
      </trkpt>
      <trkpt lat="45.286335" lon="7.268109">
        <time>1970-01-01T00:00:00+00:00</time>
        <ele>2718.0</ele>
      </trkpt>
      <trkpt lat="45.286366" lon="7.267987">
        <time>1970-01-01T00:00:00+00:00</time>
        <ele>2718.0</ele>
      </trkpt>
      <trkpt lat="45.286292" lon="7.267995">
        <time>1970-01-01T00:00:00+00:00</time>
        <ele>2714.0</ele>
      </trkpt>
      <trkpt lat="45.286317" lon="7.267869">
        <time>1970-01-01T00:00:00+00:00</time>
        <ele>2712.0</ele>
      </trkpt>
      <trkpt lat="45.28626" lon="7.267877">
        <time>1970-01-01T00:00:00+00:00</time>
        <ele>2709.0</ele>
      </trkpt>
      <trkpt lat="45.286283" lon="7.267784">
        <time>1970-01-01T00:00:00+00:00</time>
        <ele>2708.0</ele>
      </trkpt>
      <trkpt lat="45.286157" lon="7.2678">
        <time>1970-01-01T00:00:00+00:00</time>
        <ele>2701.0</ele>
      </trkpt>
      <trkpt lat="45.286083" lon="7.267885">
        <time>1970-01-01T00:00:00+00:00</time>
        <ele>2697.0</ele>
      </trkpt>
      <trkpt lat="45.286091" lon="7.267755">
        <time>1970-01-01T00:00:00+00:00</time>
        <ele>2696.0</ele>
      </trkpt>
      <trkpt lat="45.286017" lon="7.267873">
        <time>1970-01-01T00:00:00+00:00</time>
        <ele>2692.0</ele>
      </trkpt>
      <trkpt lat="45.285931" lon="7.267877">
        <time>1970-01-01T00:00:00+00:00</time>
        <ele>2686.0</ele>
      </trkpt>
      <trkpt lat="45.285825" lon="7.267963">
        <time>1970-01-01T00:00:00+00:00</time>
        <ele>2679.0</ele>
      </trkpt>
      <trkpt lat="45.285734" lon="7.267898">
        <time>1970-01-01T00:00:00+00:00</time>
        <ele>2674.0</ele>
      </trkpt>
      <trkpt lat="45.285763" lon="7.267829">
        <time>1970-01-01T00:00:00+00:00</time>
        <ele>2676.0</ele>
      </trkpt>
      <trkpt lat="45.285843" lon="7.267739">
        <time>1970-01-01T00:00:00+00:00</time>
        <ele>2680.0</ele>
      </trkpt>
      <trkpt lat="45.28584" lon="7.267682">
        <time>1970-01-01T00:00:00+00:00</time>
        <ele>2677.0</ele>
      </trkpt>
      <trkpt lat="45.285748" lon="7.267662">
        <time>1970-01-01T00:00:00+00:00</time>
        <ele>2671.0</ele>
      </trkpt>
      <trkpt lat="45.28572" lon="7.267609">
        <time>1970-01-01T00:00:00+00:00</time>
        <ele>2668.0</ele>
      </trkpt>
      <trkpt lat="45.285671" lon="7.267609">
        <time>1970-01-01T00:00:00+00:00</time>
        <ele>2664.0</ele>
      </trkpt>
      <trkpt lat="45.285648" lon="7.267536">
        <time>1970-01-01T00:00:00+00:00</time>
        <ele>2659.0</ele>
      </trkpt>
      <trkpt lat="45.285557" lon="7.267589">
        <time>1970-01-01T00:00:00+00:00</time>
        <ele>2653.0</ele>
      </trkpt>
      <trkpt lat="45.285499" lon="7.267528">
        <time>1970-01-01T00:00:00+00:00</time>
        <ele>2646.0</ele>
      </trkpt>
      <trkpt lat="45.285399" lon="7.267581">
        <time>1970-01-01T00:00:00+00:00</time>
        <ele>2638.0</ele>
      </trkpt>
      <trkpt lat="45.285391" lon="7.267434">
        <time>1970-01-01T00:00:00+00:00</time>
        <ele>2633.0</ele>
      </trkpt>
      <trkpt lat="45.285271" lon="7.267373">
        <time>1970-01-01T00:00:00+00:00</time>
        <ele>2622.0</ele>
      </trkpt>
      <trkpt lat="45.285216" lon="7.26745">
        <time>1970-01-01T00:00:00+00:00</time>
        <ele>2621.0</ele>
      </trkpt>
      <trkpt lat="45.285156" lon="7.267426">
        <time>1970-01-01T00:00:00+00:00</time>
        <ele>2616.0</ele>
      </trkpt>
      <trkpt lat="45.285162" lon="7.267353">
        <time>1970-01-01T00:00:00+00:00</time>
        <ele>2615.0</ele>
      </trkpt>
      <trkpt lat="45.284993" lon="7.267288">
        <time>1970-01-01T00:00:00+00:00</time>
        <ele>2601.0</ele>
      </trkpt>
      <trkpt lat="45.284859" lon="7.267467">
        <time>1970-01-01T00:00:00+00:00</time>
        <ele>2594.0</ele>
      </trkpt>
      <trkpt lat="45.284842" lon="7.267385">
        <time>1970-01-01T00:00:00+00:00</time>
        <ele>2592.0</ele>
      </trkpt>
      <trkpt lat="45.284804" lon="7.26745">
        <time>1970-01-01T00:00:00+00:00</time>
        <ele>2590.0</ele>
      </trkpt>
      <trkpt lat="45.28477" lon="7.267597">
        <time>1970-01-01T00:00:00+00:00</time>
        <ele>2588.0</ele>
      </trkpt>
      <trkpt lat="45.284761" lon="7.267796">
        <time>1970-01-01T00:00:00+00:00</time>
        <ele>2584.0</ele>
      </trkpt>
      <trkpt lat="45.284804" lon="7.267865">
        <time>1970-01-01T00:00:00+00:00</time>
        <ele>2583.0</ele>
      </trkpt>
      <trkpt lat="45.284842" lon="7.268036">
        <time>1970-01-01T00:00:00+00:00</time>
        <ele>2576.0</ele>
      </trkpt>
      <trkpt lat="45.28469" lon="7.268247">
        <time>1970-01-01T00:00:00+00:00</time>
        <ele>2555.0</ele>
      </trkpt>
      <trkpt lat="45.284638" lon="7.268186">
        <time>1970-01-01T00:00:00+00:00</time>
        <ele>2557.0</ele>
      </trkpt>
      <trkpt lat="45.284541" lon="7.268215">
        <time>1970-01-01T00:00:00+00:00</time>
        <ele>2552.0</ele>
      </trkpt>
      <trkpt lat="45.284473" lon="7.268296">
        <time>1970-01-01T00:00:00+00:00</time>
        <ele>2545.0</ele>
      </trkpt>
      <trkpt lat="45.284344" lon="7.26832">
        <time>1970-01-01T00:00:00+00:00</time>
        <ele>2540.0</ele>
      </trkpt>
      <trkpt lat="45.284215" lon="7.268479">
        <time>1970-01-01T00:00:00+00:00</time>
        <ele>2530.0</ele>
      </trkpt>
      <trkpt lat="45.284089" lon="7.268523">
        <time>1970-01-01T00:00:00+00:00</time>
        <ele>2524.0</ele>
      </trkpt>
      <trkpt lat="45.284012" lon="7.268592">
        <time>1970-01-01T00:00:00+00:00</time>
        <ele>2519.0</ele>
      </trkpt>
      <trkpt lat="45.283952" lon="7.26871">
        <time>1970-01-01T00:00:00+00:00</time>
        <ele>2508.0</ele>
      </trkpt>
      <trkpt lat="45.28402" lon="7.268767">
        <time>1970-01-01T00:00:00+00:00</time>
        <ele>2509.0</ele>
      </trkpt>
      <trkpt lat="45.28398" lon="7.268828">
        <time>1970-01-01T00:00:00+00:00</time>
        <ele>2503.0</ele>
      </trkpt>
      <trkpt lat="45.284023" lon="7.268897">
        <time>1970-01-01T00:00:00+00:00</time>
        <ele>2502.0</ele>
      </trkpt>
      <trkpt lat="45.283989" lon="7.268975">
        <time>1970-01-01T00:00:00+00:00</time>
        <ele>2496.0</ele>
      </trkpt>
      <trkpt lat="45.283912" lon="7.268975">
        <time>1970-01-01T00:00:00+00:00</time>
        <ele>2490.0</ele>
      </trkpt>
      <trkpt lat="45.283923" lon="7.269064">
        <time>1970-01-01T00:00:00+00:00</time>
        <ele>2486.0</ele>
      </trkpt>
      <trkpt lat="45.283846" lon="7.269088">
        <time>1970-01-01T00:00:00+00:00</time>
        <ele>2479.0</ele>
      </trkpt>
      <trkpt lat="45.283846" lon="7.269182">
        <time>1970-01-01T00:00:00+00:00</time>
        <ele>2475.0</ele>
      </trkpt>
      <trkpt lat="45.2838" lon="7.269267">
        <time>1970-01-01T00:00:00+00:00</time>
        <ele>2468.0</ele>
      </trkpt>
      <trkpt lat="45.28378" lon="7.269377">
        <time>1970-01-01T00:00:00+00:00</time>
        <ele>2463.0</ele>
      </trkpt>
      <trkpt lat="45.283686" lon="7.269345">
        <time>1970-01-01T00:00:00+00:00</time>
        <ele>2458.0</ele>
      </trkpt>
      <trkpt lat="45.283674" lon="7.269487">
        <time>1970-01-01T00:00:00+00:00</time>
        <ele>2451.0</ele>
      </trkpt>
      <trkpt lat="45.283577" lon="7.269597">
        <time>1970-01-01T00:00:00+00:00</time>
        <ele>2440.0</ele>
      </trkpt>
      <trkpt lat="45.283488" lon="7.269601">
        <time>1970-01-01T00:00:00+00:00</time>
        <ele>2437.0</ele>
      </trkpt>
      <trkpt lat="45.283494" lon="7.269731">
        <time>1970-01-01T00:00:00+00:00</time>
        <ele>2433.0</ele>
      </trkpt>
      <trkpt lat="45.283411" lon="7.2698">
        <time>1970-01-01T00:00:00+00:00</time>
        <ele>2428.0</ele>
      </trkpt>
      <trkpt lat="45.28336" lon="7.269751">
        <time>1970-01-01T00:00:00+00:00</time>
        <ele>2427.0</ele>
      </trkpt>
      <trkpt lat="45.283297" lon="7.26982">
        <time>1970-01-01T00:00:00+00:00</time>
        <ele>2422.0</ele>
      </trkpt>
      <trkpt lat="45.283191" lon="7.269788">
        <time>1970-01-01T00:00:00+00:00</time>
        <ele>2419.0</ele>
      </trkpt>
      <trkpt lat="45.283105" lon="7.269877">
        <time>1970-01-01T00:00:00+00:00</time>
        <ele>2413.0</ele>
      </trkpt>
      <trkpt lat="45.282999" lon="7.269914">
        <time>1970-01-01T00:00:00+00:00</time>
        <ele>2409.0</ele>
      </trkpt>
      <trkpt lat="45.282962" lon="7.270011">
        <time>1970-01-01T00:00:00+00:00</time>
        <ele>2406.0</ele>
      </trkpt>
      <trkpt lat="45.28291" lon="7.269995">
        <time>1970-01-01T00:00:00+00:00</time>
        <ele>2405.0</ele>
      </trkpt>
      <trkpt lat="45.282862" lon="7.27008">
        <time>1970-01-01T00:00:00+00:00</time>
        <ele>2402.0</ele>
      </trkpt>
      <trkpt lat="45.28279" lon="7.270105">
        <time>1970-01-01T00:00:00+00:00</time>
        <ele>2401.0</ele>
      </trkpt>
      <trkpt lat="45.282713" lon="7.270247">
        <time>1970-01-01T00:00:00+00:00</time>
        <ele>2396.0</ele>
      </trkpt>
      <trkpt lat="45.28259" lon="7.270304">
        <time>1970-01-01T00:00:00+00:00</time>
        <ele>2392.0</ele>
      </trkpt>
      <trkpt lat="45.282602" lon="7.270422">
        <time>1970-01-01T00:00:00+00:00</time>
        <ele>2386.0</ele>
      </trkpt>
      <trkpt lat="45.282553" lon="7.27056">
        <time>1970-01-01T00:00:00+00:00</time>
        <ele>2378.0</ele>
      </trkpt>
      <trkpt lat="45.282541" lon="7.27065">
        <time>1970-01-01T00:00:00+00:00</time>
        <ele>2372.0</ele>
      </trkpt>
      <trkpt lat="45.282352" lon="7.270694">
        <time>1970-01-01T00:00:00+00:00</time>
        <ele>2367.0</ele>
      </trkpt>
      <trkpt lat="45.28216" lon="7.270906">
        <time>1970-01-01T00:00:00+00:00</time>
        <ele>2350.0</ele>
      </trkpt>
      <trkpt lat="45.282074" lon="7.27093">
        <time>1970-01-01T00:00:00+00:00</time>
        <ele>2347.0</ele>
      </trkpt>
      <trkpt lat="45.282026" lon="7.27104">
        <time>1970-01-01T00:00:00+00:00</time>
        <ele>2339.0</ele>
      </trkpt>
      <trkpt lat="45.281945" lon="7.270999">
        <time>1970-01-01T00:00:00+00:00</time>
        <ele>2339.0</ele>
      </trkpt>
      <trkpt lat="45.281911" lon="7.271056">
        <time>1970-01-01T00:00:00+00:00</time>
        <ele>2336.0</ele>
      </trkpt>
      <trkpt lat="45.281734" lon="7.271072">
        <time>1970-01-01T00:00:00+00:00</time>
        <ele>2335.0</ele>
      </trkpt>
      <trkpt lat="45.281645" lon="7.271032">
        <time>1970-01-01T00:00:00+00:00</time>
        <ele>2337.0</ele>
      </trkpt>
      <trkpt lat="45.281599" lon="7.270979">
        <time>1970-01-01T00:00:00+00:00</time>
        <ele>2341.0</ele>
      </trkpt>
      <trkpt lat="45.281516" lon="7.271044">
        <time>1970-01-01T00:00:00+00:00</time>
        <ele>2338.0</ele>
      </trkpt>
      <trkpt lat="45.281436" lon="7.271011">
        <time>1970-01-01T00:00:00+00:00</time>
        <ele>2340.0</ele>
      </trkpt>
      <trkpt lat="45.281373" lon="7.271048">
        <time>1970-01-01T00:00:00+00:00</time>
        <ele>2338.0</ele>
      </trkpt>
      <trkpt lat="45.281288" lon="7.270999">
        <time>1970-01-01T00:00:00+00:00</time>
        <ele>2340.0</ele>
      </trkpt>
      <trkpt lat="45.281227" lon="7.27104">
        <time>1970-01-01T00:00:00+00:00</time>
        <ele>2338.0</ele>
      </trkpt>
      <trkpt lat="45.281133" lon="7.271036">
        <time>1970-01-01T00:00:00+00:00</time>
        <ele>2337.0</ele>
      </trkpt>
      <trkpt lat="45.281062" lon="7.27108">
        <time>1970-01-01T00:00:00+00:00</time>
        <ele>2335.0</ele>
      </trkpt>
      <trkpt lat="45.280984" lon="7.27106">
        <time>1970-01-01T00:00:00+00:00</time>
        <ele>2335.0</ele>
      </trkpt>
      <trkpt lat="45.280878" lon="7.271154">
        <time>1970-01-01T00:00:00+00:00</time>
        <ele>2330.0</ele>
      </trkpt>
      <trkpt lat="45.280816" lon="7.271121">
        <time>1970-01-01T00:00:00+00:00</time>
        <ele>2332.0</ele>
      </trkpt>
      <trkpt lat="45.280704" lon="7.271239">
        <time>1970-01-01T00:00:00+00:00</time>
        <ele>2325.0</ele>
      </trkpt>
      <trkpt lat="45.280641" lon="7.271207">
        <time>1970-01-01T00:00:00+00:00</time>
        <ele>2327.0</ele>
      </trkpt>
      <trkpt lat="45.280535" lon="7.271365">
        <time>1970-01-01T00:00:00+00:00</time>
        <ele>2321.0</ele>
      </trkpt>
      <trkpt lat="45.280458" lon="7.271581">
        <time>1970-01-01T00:00:00+00:00</time>
        <ele>2315.0</ele>
      </trkpt>
      <trkpt lat="45.280469" lon="7.272394">
        <time>1970-01-01T00:00:00+00:00</time>
        <ele>2306.0</ele>
      </trkpt>
      <trkpt lat="45.280489" lon="7.272544">
        <time>1970-01-01T00:00:00+00:00</time>
        <ele>2303.0</ele>
      </trkpt>
      <trkpt lat="45.280487" lon="7.272686">
        <time>1970-01-01T00:00:00+00:00</time>
        <ele>2301.0</ele>
      </trkpt>
      <trkpt lat="45.280467" lon="7.272816">
        <time>1970-01-01T00:00:00+00:00</time>
        <ele>2299.0</ele>
      </trkpt>
      <trkpt lat="45.280301" lon="7.273044">
        <time>1970-01-01T00:00:00+00:00</time>
        <ele>2295.0</ele>
      </trkpt>
      <trkpt lat="45.280191" lon="7.273404">
        <time>1970-01-01T00:00:00+00:00</time>
        <ele>2291.0</ele>
      </trkpt>
      <trkpt lat="45.280148" lon="7.273672">
        <time>1970-01-01T00:00:00+00:00</time>
        <ele>2286.0</ele>
      </trkpt>
      <trkpt lat="45.280045" lon="7.273818">
        <time>1970-01-01T00:00:00+00:00</time>
        <ele>2284.0</ele>
      </trkpt>
      <trkpt lat="45.279994" lon="7.273977">
        <time>1970-01-01T00:00:00+00:00</time>
        <ele>2281.0</ele>
      </trkpt>
      <trkpt lat="45.279979" lon="7.274119">
        <time>1970-01-01T00:00:00+00:00</time>
        <ele>2279.0</ele>
      </trkpt>
      <trkpt lat="45.280062" lon="7.274241">
        <time>1970-01-01T00:00:00+00:00</time>
        <ele>2276.0</ele>
      </trkpt>
      <trkpt lat="45.279951" lon="7.274672">
        <time>1970-01-01T00:00:00+00:00</time>
        <ele>2271.0</ele>
      </trkpt>
      <trkpt lat="45.279899" lon="7.274965">
        <time>1970-01-01T00:00:00+00:00</time>
        <ele>2268.0</ele>
      </trkpt>
      <trkpt lat="45.279899" lon="7.275172">
        <time>1970-01-01T00:00:00+00:00</time>
        <ele>2264.0</ele>
      </trkpt>
      <trkpt lat="45.279871" lon="7.275371">
        <time>1970-01-01T00:00:00+00:00</time>
        <ele>2260.0</ele>
      </trkpt>
      <trkpt lat="45.279825" lon="7.275631">
        <time>1970-01-01T00:00:00+00:00</time>
        <ele>2256.0</ele>
      </trkpt>
      <trkpt lat="45.279749" lon="7.275872">
        <time>1970-01-01T00:00:00+00:00</time>
        <ele>2251.0</ele>
      </trkpt>
      <trkpt lat="45.279771" lon="7.275983">
        <time>1970-01-01T00:00:00+00:00</time>
        <ele>2248.0</ele>
      </trkpt>
      <trkpt lat="45.279673" lon="7.27616">
        <time>1970-01-01T00:00:00+00:00</time>
        <ele>2245.0</ele>
      </trkpt>
      <trkpt lat="45.279616" lon="7.2764">
        <time>1970-01-01T00:00:00+00:00</time>
        <ele>2243.0</ele>
      </trkpt>
      <trkpt lat="45.279545" lon="7.276445">
        <time>1970-01-01T00:00:00+00:00</time>
        <ele>2243.0</ele>
      </trkpt>
      <trkpt lat="45.279465" lon="7.276396">
        <time>1970-01-01T00:00:00+00:00</time>
        <ele>2247.0</ele>
      </trkpt>
      <trkpt lat="45.279422" lon="7.276453">
        <time>1970-01-01T00:00:00+00:00</time>
        <ele>2247.0</ele>
      </trkpt>
      <trkpt lat="45.279367" lon="7.276689">
        <time>1970-01-01T00:00:00+00:00</time>
        <ele>2243.0</ele>
      </trkpt>
      <trkpt lat="45.279313" lon="7.27679">
        <time>1970-01-01T00:00:00+00:00</time>
        <ele>2242.0</ele>
      </trkpt>
      <trkpt lat="45.279347" lon="7.276847">
        <time>1970-01-01T00:00:00+00:00</time>
        <ele>2240.0</ele>
      </trkpt>
      <trkpt lat="45.279385" lon="7.276999">
        <time>1970-01-01T00:00:00+00:00</time>
        <ele>2235.0</ele>
      </trkpt>
      <trkpt lat="45.279352" lon="7.277032">
        <time>1970-01-01T00:00:00+00:00</time>
        <ele>2236.0</ele>
      </trkpt>
      <trkpt lat="45.279379" lon="7.277079">
        <time>1970-01-01T00:00:00+00:00</time>
        <ele>2234.0</ele>
      </trkpt>
      <trkpt lat="45.279339" lon="7.277347">
        <time>1970-01-01T00:00:00+00:00</time>
        <ele>2228.0</ele>
      </trkpt>
      <trkpt lat="45.279382" lon="7.277506">
        <time>1970-01-01T00:00:00+00:00</time>
        <ele>2222.0</ele>
      </trkpt>
      <trkpt lat="45.279376" lon="7.277624">
        <time>1970-01-01T00:00:00+00:00</time>
        <ele>2218.0</ele>
      </trkpt>
      <trkpt lat="45.279213" lon="7.277815">
        <time>1970-01-01T00:00:00+00:00</time>
        <ele>2221.0</ele>
      </trkpt>
      <trkpt lat="45.279236" lon="7.277981">
        <time>1970-01-01T00:00:00+00:00</time>
        <ele>2222.0</ele>
      </trkpt>
      <trkpt lat="45.279296" lon="7.278059">
        <time>1970-01-01T00:00:00+00:00</time>
        <ele>2221.0</ele>
      </trkpt>
      <trkpt lat="45.279582" lon="7.278278">
        <time>1970-01-01T00:00:00+00:00</time>
        <ele>2211.0</ele>
      </trkpt>
      <trkpt lat="45.279691" lon="7.278302">
        <time>1970-01-01T00:00:00+00:00</time>
        <ele>2207.0</ele>
      </trkpt>
      <trkpt lat="45.279848" lon="7.278453">
        <time>1970-01-01T00:00:00+00:00</time>
        <ele>2204.0</ele>
      </trkpt>
      <trkpt lat="45.280002" lon="7.278502">
        <time>1970-01-01T00:00:00+00:00</time>
        <ele>2199.0</ele>
      </trkpt>
      <trkpt lat="45.280108" lon="7.278477">
        <time>1970-01-01T00:00:00+00:00</time>
        <ele>2194.0</ele>
      </trkpt>
      <trkpt lat="45.280225" lon="7.278542">
        <time>1970-01-01T00:00:00+00:00</time>
        <ele>2191.0</ele>
      </trkpt>
      <trkpt lat="45.280325" lon="7.278567">
        <time>1970-01-01T00:00:00+00:00</time>
        <ele>2189.0</ele>
      </trkpt>
      <trkpt lat="45.280411" lon="7.278518">
        <time>1970-01-01T00:00:00+00:00</time>
        <ele>2187.0</ele>
      </trkpt>
      <trkpt lat="45.280537" lon="7.278591">
        <time>1970-01-01T00:00:00+00:00</time>
        <ele>2184.0</ele>
      </trkpt>
      <trkpt lat="45.280675" lon="7.278721">
        <time>1970-01-01T00:00:00+00:00</time>
        <ele>2181.0</ele>
      </trkpt>
      <trkpt lat="45.280943" lon="7.278807">
        <time>1970-01-01T00:00:00+00:00</time>
        <ele>2174.0</ele>
      </trkpt>
      <trkpt lat="45.281029" lon="7.27888">
        <time>1970-01-01T00:00:00+00:00</time>
        <ele>2173.0</ele>
      </trkpt>
      <trkpt lat="45.281098" lon="7.279018">
        <time>1970-01-01T00:00:00+00:00</time>
        <ele>2172.0</ele>
      </trkpt>
      <trkpt lat="45.281144" lon="7.279063">
        <time>1970-01-01T00:00:00+00:00</time>
        <ele>2172.0</ele>
      </trkpt>
      <trkpt lat="45.281277" lon="7.279265">
        <time>1970-01-01T00:00:00+00:00</time>
        <ele>2168.0</ele>
      </trkpt>
      <trkpt lat="45.281331" lon="7.279265">
        <time>1970-01-01T00:00:00+00:00</time>
        <ele>2166.0</ele>
      </trkpt>
      <trkpt lat="45.281465" lon="7.279562">
        <time>1970-01-01T00:00:00+00:00</time>
        <ele>2162.0</ele>
      </trkpt>
      <trkpt lat="45.281485" lon="7.279907">
        <time>1970-01-01T00:00:00+00:00</time>
        <ele>2161.0</ele>
      </trkpt>
      <trkpt lat="45.281646" lon="7.2807">
        <time>1970-01-01T00:00:00+00:00</time>
        <ele>2152.0</ele>
      </trkpt>
      <trkpt lat="45.281997" lon="7.281533">
        <time>1970-01-01T00:00:00+00:00</time>
        <ele>2135.0</ele>
      </trkpt>
      <trkpt lat="45.282278" lon="7.281716">
        <time>1970-01-01T00:00:00+00:00</time>
        <ele>2129.0</ele>
      </trkpt>
      <trkpt lat="45.282335" lon="7.281814">
        <time>1970-01-01T00:00:00+00:00</time>
        <ele>2128.0</ele>
      </trkpt>
      <trkpt lat="45.282515" lon="7.281956">
        <time>1970-01-01T00:00:00+00:00</time>
        <ele>2124.0</ele>
      </trkpt>
      <trkpt lat="45.282552" lon="7.282127">
        <time>1970-01-01T00:00:00+00:00</time>
        <ele>2122.0</ele>
      </trkpt>
      <trkpt lat="45.282807" lon="7.282696">
        <time>1970-01-01T00:00:00+00:00</time>
        <ele>2116.0</ele>
      </trkpt>
      <trkpt lat="45.283138" lon="7.282923">
        <time>1970-01-01T00:00:00+00:00</time>
        <ele>2111.0</ele>
      </trkpt>
      <trkpt lat="45.283235" lon="7.283058">
        <time>1970-01-01T00:00:00+00:00</time>
        <ele>2110.0</ele>
      </trkpt>
      <trkpt lat="45.283304" lon="7.283066">
        <time>1970-01-01T00:00:00+00:00</time>
        <ele>2110.0</ele>
      </trkpt>
      <trkpt lat="45.283357" lon="7.283167">
        <time>1970-01-01T00:00:00+00:00</time>
        <ele>2109.0</ele>
      </trkpt>
      <trkpt lat="45.283661" lon="7.283131">
        <time>1970-01-01T00:00:00+00:00</time>
        <ele>2108.0</ele>
      </trkpt>
      <trkpt lat="45.283795" lon="7.283181">
        <time>1970-01-01T00:00:00+00:00</time>
        <ele>2105.0</ele>
      </trkpt>
      <trkpt lat="45.284055" lon="7.283117">
        <time>1970-01-01T00:00:00+00:00</time>
        <ele>2103.0</ele>
      </trkpt>
      <trkpt lat="45.284323" lon="7.283011">
        <time>1970-01-01T00:00:00+00:00</time>
        <ele>2102.0</ele>
      </trkpt>
      <trkpt lat="45.284488" lon="7.28316">
        <time>1970-01-01T00:00:00+00:00</time>
        <ele>2100.0</ele>
      </trkpt>
      <trkpt lat="45.284582" lon="7.283082">
        <time>1970-01-01T00:00:00+00:00</time>
        <ele>2099.0</ele>
      </trkpt>
      <trkpt lat="45.284672" lon="7.283174">
        <time>1970-01-01T00:00:00+00:00</time>
        <ele>2098.0</ele>
      </trkpt>
      <trkpt lat="45.284732" lon="7.283167">
        <time>1970-01-01T00:00:00+00:00</time>
        <ele>2097.0</ele>
      </trkpt>
      <trkpt lat="45.284851" lon="7.283018">
        <time>1970-01-01T00:00:00+00:00</time>
        <ele>2095.0</ele>
      </trkpt>
      <trkpt lat="45.285021" lon="7.282898">
        <time>1970-01-01T00:00:00+00:00</time>
        <ele>2094.0</ele>
      </trkpt>
      <trkpt lat="45.285264" lon="7.282919">
        <time>1970-01-01T00:00:00+00:00</time>
        <ele>2095.0</ele>
      </trkpt>
      <trkpt lat="45.285408" lon="7.283058">
        <time>1970-01-01T00:00:00+00:00</time>
        <ele>2096.0</ele>
      </trkpt>
      <trkpt lat="45.285498" lon="7.283259">
        <time>1970-01-01T00:00:00+00:00</time>
        <ele>2096.0</ele>
      </trkpt>
      <trkpt lat="45.285598" lon="7.283789">
        <time>1970-01-01T00:00:00+00:00</time>
        <ele>2096.0</ele>
      </trkpt>
      <trkpt lat="45.285662" lon="7.283959">
        <time>1970-01-01T00:00:00+00:00</time>
        <ele>2094.0</ele>
      </trkpt>
      <trkpt lat="45.285931" lon="7.284143">
        <time>1970-01-01T00:00:00+00:00</time>
        <ele>2099.0</ele>
      </trkpt>
      <trkpt lat="45.2862" lon="7.28415">
        <time>1970-01-01T00:00:00+00:00</time>
        <ele>2099.0</ele>
      </trkpt>
      <trkpt lat="45.286638" lon="7.283697">
        <time>1970-01-01T00:00:00+00:00</time>
        <ele>2100.0</ele>
      </trkpt>
      <trkpt lat="45.286922" lon="7.283627">
        <time>1970-01-01T00:00:00+00:00</time>
        <ele>2098.0</ele>
      </trkpt>
      <trkpt lat="45.287102" lon="7.283521">
        <time>1970-01-01T00:00:00+00:00</time>
        <ele>2101.0</ele>
      </trkpt>
      <trkpt lat="45.287405" lon="7.283591">
        <time>1970-01-01T00:00:00+00:00</time>
        <ele>2106.0</ele>
      </trkpt>
      <trkpt lat="45.287495" lon="7.283712">
        <time>1970-01-01T00:00:00+00:00</time>
        <ele>2105.0</ele>
      </trkpt>
      <trkpt lat="45.287525" lon="7.283634">
        <time>1970-01-01T00:00:00+00:00</time>
        <ele>2110.0</ele>
      </trkpt>
      <trkpt lat="45.287669" lon="7.283528">
        <time>1970-01-01T00:00:00+00:00</time>
        <ele>2122.0</ele>
      </trkpt>
      <trkpt lat="45.287888" lon="7.283577">
        <time>1970-01-01T00:00:00+00:00</time>
        <ele>2127.0</ele>
      </trkpt>
      <trkpt lat="45.287938" lon="7.283768">
        <time>1970-01-01T00:00:00+00:00</time>
        <ele>2121.0</ele>
      </trkpt>
      <trkpt lat="45.288003" lon="7.283804">
        <time>1970-01-01T00:00:00+00:00</time>
        <ele>2121.0</ele>
      </trkpt>
      <trkpt lat="45.288048" lon="7.283988">
        <time>1970-01-01T00:00:00+00:00</time>
        <ele>2118.0</ele>
      </trkpt>
      <trkpt lat="45.288152" lon="7.283974">
        <time>1970-01-01T00:00:00+00:00</time>
        <ele>2121.0</ele>
      </trkpt>
      <trkpt lat="45.288491" lon="7.283598">
        <time>1970-01-01T00:00:00+00:00</time>
        <ele>2118.0</ele>
      </trkpt>
      <trkpt lat="45.28868" lon="7.283308">
        <time>1970-01-01T00:00:00+00:00</time>
        <ele>2107.0</ele>
      </trkpt>
      <trkpt lat="45.288974" lon="7.283421">
        <time>1970-01-01T00:00:00+00:00</time>
        <ele>2095.0</ele>
      </trkpt>
      <trkpt lat="45.288974" lon="7.283301">
        <time>1970-01-01T00:00:00+00:00</time>
        <ele>2094.0</ele>
      </trkpt>
      <trkpt lat="45.289084" lon="7.283287">
        <time>1970-01-01T00:00:00+00:00</time>
        <ele>2089.0</ele>
      </trkpt>
      <trkpt lat="45.289128" lon="7.283131">
        <time>1970-01-01T00:00:00+00:00</time>
        <ele>2086.0</ele>
      </trkpt>
      <trkpt lat="45.289238" lon="7.283096">
        <time>1970-01-01T00:00:00+00:00</time>
        <ele>2079.0</ele>
      </trkpt>
      <trkpt lat="45.289253" lon="7.282876">
        <time>1970-01-01T00:00:00+00:00</time>
        <ele>2076.0</ele>
      </trkpt>
      <trkpt lat="45.289338" lon="7.282848">
        <time>1970-01-01T00:00:00+00:00</time>
        <ele>2070.0</ele>
      </trkpt>
      <trkpt lat="45.289681" lon="7.283181">
        <time>1970-01-01T00:00:00+00:00</time>
        <ele>2056.0</ele>
      </trkpt>
      <trkpt lat="45.2899" lon="7.283131">
        <time>1970-01-01T00:00:00+00:00</time>
        <ele>2044.0</ele>
      </trkpt>
      <trkpt lat="45.29008" lon="7.282905">
        <time>1970-01-01T00:00:00+00:00</time>
        <ele>2035.0</ele>
      </trkpt>
      <trkpt lat="45.290329" lon="7.282855">
        <time>1970-01-01T00:00:00+00:00</time>
        <ele>2027.0</ele>
      </trkpt>
      <trkpt lat="45.290368" lon="7.282706">
        <time>1970-01-01T00:00:00+00:00</time>
        <ele>2027.0</ele>
      </trkpt>
      <trkpt lat="45.290498" lon="7.282905">
        <time>1970-01-01T00:00:00+00:00</time>
        <ele>2019.0</ele>
      </trkpt>
      <trkpt lat="45.29083" lon="7.283216">
        <time>1970-01-01T00:00:00+00:00</time>
        <ele>1999.0</ele>
      </trkpt>
      <trkpt lat="45.290999" lon="7.283407">
        <time>1970-01-01T00:00:00+00:00</time>
        <ele>1991.0</ele>
      </trkpt>
      <trkpt lat="45.291044" lon="7.283613">
        <time>1970-01-01T00:00:00+00:00</time>
        <ele>1987.0</ele>
      </trkpt>
      <trkpt lat="45.291696" lon="7.284122">
        <time>1970-01-01T00:00:00+00:00</time>
        <ele>1966.0</ele>
      </trkpt>
      <trkpt lat="45.291881" lon="7.284129">
        <time>1970-01-01T00:00:00+00:00</time>
        <ele>1965.0</ele>
      </trkpt>
      <trkpt lat="45.29195" lon="7.284306">
        <time>1970-01-01T00:00:00+00:00</time>
        <ele>1962.0</ele>
      </trkpt>
      <trkpt lat="45.292299" lon="7.28437">
        <time>1970-01-01T00:00:00+00:00</time>
        <ele>1959.0</ele>
      </trkpt>
      <trkpt lat="45.292608" lon="7.284235">
        <time>1970-01-01T00:00:00+00:00</time>
        <ele>1957.0</ele>
      </trkpt>
      <trkpt lat="45.292847" lon="7.283981">
        <time>1970-01-01T00:00:00+00:00</time>
        <ele>1955.0</ele>
      </trkpt>
      <trkpt lat="45.292802" lon="7.283747">
        <time>1970-01-01T00:00:00+00:00</time>
        <ele>1957.0</ele>
      </trkpt>
      <trkpt lat="45.292647" lon="7.283528">
        <time>1970-01-01T00:00:00+00:00</time>
        <ele>1963.0</ele>
      </trkpt>
      <trkpt lat="45.292911" lon="7.28316">
        <time>1970-01-01T00:00:00+00:00</time>
        <ele>1951.0</ele>
      </trkpt>
      <trkpt lat="45.29307" lon="7.282869">
        <time>1970-01-01T00:00:00+00:00</time>
        <ele>1940.0</ele>
      </trkpt>
      <trkpt lat="45.29323" lon="7.28236">
        <time>1970-01-01T00:00:00+00:00</time>
        <ele>1933.0</ele>
      </trkpt>
      <trkpt lat="45.293349" lon="7.282162">
        <time>1970-01-01T00:00:00+00:00</time>
        <ele>1927.0</ele>
      </trkpt>
      <trkpt lat="45.293493" lon="7.282211">
        <time>1970-01-01T00:00:00+00:00</time>
        <ele>1921.0</ele>
      </trkpt>
      <trkpt lat="45.293912" lon="7.282289">
        <time>1970-01-01T00:00:00+00:00</time>
        <ele>1909.0</ele>
      </trkpt>
      <trkpt lat="45.294061" lon="7.282176">
        <time>1970-01-01T00:00:00+00:00</time>
        <ele>1908.0</ele>
      </trkpt>
      <trkpt lat="45.294189" lon="7.282264">
        <time>1970-01-01T00:00:00+00:00</time>
        <ele>1902.0</ele>
      </trkpt>
      <trkpt lat="45.294629" lon="7.282423">
        <time>1970-01-01T00:00:00+00:00</time>
        <ele>1883.0</ele>
      </trkpt>
      <trkpt lat="45.294569" lon="7.282664">
        <time>1970-01-01T00:00:00+00:00</time>
        <ele>1882.0</ele>
      </trkpt>
      <trkpt lat="45.294728" lon="7.282728">
        <time>1970-01-01T00:00:00+00:00</time>
        <ele>1874.0</ele>
      </trkpt>
      <trkpt lat="45.294838" lon="7.282692">
        <time>1970-01-01T00:00:00+00:00</time>
        <ele>1870.0</ele>
      </trkpt>
      <trkpt lat="45.294967" lon="7.282777">
        <time>1970-01-01T00:00:00+00:00</time>
        <ele>1862.0</ele>
      </trkpt>
      <trkpt lat="45.294903" lon="7.282919">
        <time>1970-01-01T00:00:00+00:00</time>
        <ele>1861.0</ele>
      </trkpt>
      <trkpt lat="45.295032" lon="7.283032">
        <time>1970-01-01T00:00:00+00:00</time>
        <ele>1853.0</ele>
      </trkpt>
      <trkpt lat="45.295625" lon="7.283181">
        <time>1970-01-01T00:00:00+00:00</time>
        <ele>1836.0</ele>
      </trkpt>
      <trkpt lat="45.29554" lon="7.283379">
        <time>1970-01-01T00:00:00+00:00</time>
        <ele>1831.0</ele>
      </trkpt>
      <trkpt lat="45.296128" lon="7.2834">
        <time>1970-01-01T00:00:00+00:00</time>
        <ele>1808.0</ele>
      </trkpt>
      <trkpt lat="45.296013" lon="7.28362">
        <time>1970-01-01T00:00:00+00:00</time>
        <ele>1803.0</ele>
      </trkpt>
      <trkpt lat="45.295978" lon="7.283761">
        <time>1970-01-01T00:00:00+00:00</time>
        <ele>1798.0</ele>
      </trkpt>
      <trkpt lat="45.296172" lon="7.283775">
        <time>1970-01-01T00:00:00+00:00</time>
        <ele>1794.0</ele>
      </trkpt>
      <trkpt lat="45.296374" lon="7.284397">
        <time>1970-01-01T00:00:00+00:00</time>
        <ele>1777.0</ele>
      </trkpt>
      <trkpt lat="45.296175" lon="7.28446">
        <time>1970-01-01T00:00:00+00:00</time>
        <ele>1776.0</ele>
      </trkpt>
      <trkpt lat="45.296145" lon="7.284744">
        <time>1970-01-01T00:00:00+00:00</time>
        <ele>1768.0</ele>
      </trkpt>
      <trkpt lat="45.296075" lon="7.284991">
        <time>1970-01-01T00:00:00+00:00</time>
        <ele>1767.0</ele>
      </trkpt>
      <trkpt lat="45.296184" lon="7.285133">
        <time>1970-01-01T00:00:00+00:00</time>
        <ele>1760.0</ele>
      </trkpt>
      <trkpt lat="45.29616" lon="7.285409">
        <time>1970-01-01T00:00:00+00:00</time>
        <ele>1755.0</ele>
      </trkpt>
      <trkpt lat="45.296105" lon="7.285614">
        <time>1970-01-01T00:00:00+00:00</time>
        <ele>1754.0</ele>
      </trkpt>
      <trkpt lat="45.296259" lon="7.285919">
        <time>1970-01-01T00:00:00+00:00</time>
        <ele>1739.0</ele>
      </trkpt>
      <trkpt lat="45.296279" lon="7.286612">
        <time>1970-01-01T00:00:00+00:00</time>
        <ele>1728.0</ele>
      </trkpt>
      <trkpt lat="45.296384" lon="7.287341">
        <time>1970-01-01T00:00:00+00:00</time>
        <ele>1705.0</ele>
      </trkpt>
      <trkpt lat="45.296603" lon="7.287964">
        <time>1970-01-01T00:00:00+00:00</time>
        <ele>1689.0</ele>
      </trkpt>
      <trkpt lat="45.296822" lon="7.288672">
        <time>1970-01-01T00:00:00+00:00</time>
        <ele>1671.0</ele>
      </trkpt>
      <trkpt lat="45.296991" lon="7.289111">
        <time>1970-01-01T00:00:00+00:00</time>
        <ele>1656.0</ele>
      </trkpt>
      <trkpt lat="45.29729" lon="7.289111">
        <time>1970-01-01T00:00:00+00:00</time>
        <ele>1645.0</ele>
      </trkpt>
      <trkpt lat="45.297459" lon="7.28909">
        <time>1970-01-01T00:00:00+00:00</time>
        <ele>1640.0</ele>
      </trkpt>
      <trkpt lat="45.297668" lon="7.289486">
        <time>1970-01-01T00:00:00+00:00</time>
        <ele>1630.0</ele>
      </trkpt>
      <trkpt lat="45.297715" lon="7.289639">
        <time>1970-01-01T00:00:00+00:00</time>
        <ele>1627.0</ele>
      </trkpt>
      <trkpt lat="45.29776" lon="7.289789">
        <time>1970-01-01T00:00:00+00:00</time>
        <ele>1624.0</ele>
      </trkpt>
      <trkpt lat="45.297646" lon="7.289944">
        <time>1970-01-01T00:00:00+00:00</time>
        <ele>1622.0</ele>
      </trkpt>
      <trkpt lat="45.297638" lon="7.290051">
        <time>1970-01-01T00:00:00+00:00</time>
        <ele>1617.0</ele>
      </trkpt>
      <trkpt lat="45.297595" lon="7.29008">
        <time>1970-01-01T00:00:00+00:00</time>
        <ele>1617.0</ele>
      </trkpt>
      <trkpt lat="45.297586" lon="7.290194">
        <time>1970-01-01T00:00:00+00:00</time>
        <ele>1613.0</ele>
      </trkpt>
      <trkpt lat="45.297615" lon="7.290245">
        <time>1970-01-01T00:00:00+00:00</time>
        <ele>1611.0</ele>
      </trkpt>
      <trkpt lat="45.297624" lon="7.290321">
        <time>1970-01-01T00:00:00+00:00</time>
        <ele>1608.0</ele>
      </trkpt>
      <trkpt lat="45.297555" lon="7.290425">
        <time>1970-01-01T00:00:00+00:00</time>
        <ele>1606.0</ele>
      </trkpt>
      <trkpt lat="45.297535" lon="7.290656">
        <time>1970-01-01T00:00:00+00:00</time>
        <ele>1600.0</ele>
      </trkpt>
      <trkpt lat="45.297535" lon="7.290891">
        <time>1970-01-01T00:00:00+00:00</time>
        <ele>1596.0</ele>
      </trkpt>
      <trkpt lat="45.297597" lon="7.290983">
        <time>1970-01-01T00:00:00+00:00</time>
        <ele>1595.0</ele>
      </trkpt>
      <trkpt lat="45.2976" lon="7.291227">
        <time>1970-01-01T00:00:00+00:00</time>
        <ele>1591.0</ele>
      </trkpt>
      <trkpt lat="45.297571" lon="7.291486">
        <time>1970-01-01T00:00:00+00:00</time>
        <ele>1583.0</ele>
      </trkpt>
      <trkpt lat="45.297629" lon="7.291531">
        <time>1970-01-01T00:00:00+00:00</time>
        <ele>1581.0</ele>
      </trkpt>
      <trkpt lat="45.297682" lon="7.291626">
        <time>1970-01-01T00:00:00+00:00</time>
        <ele>1577.0</ele>
      </trkpt>
      <trkpt lat="45.297795" lon="7.291677">
        <time>1970-01-01T00:00:00+00:00</time>
        <ele>1574.0</ele>
      </trkpt>
      <trkpt lat="45.297865" lon="7.29178">
        <time>1970-01-01T00:00:00+00:00</time>
        <ele>1571.0</ele>
      </trkpt>
      <trkpt lat="45.297947" lon="7.291833">
        <time>1970-01-01T00:00:00+00:00</time>
        <ele>1569.0</ele>
      </trkpt>
      <trkpt lat="45.297975" lon="7.291921">
        <time>1970-01-01T00:00:00+00:00</time>
        <ele>1567.0</ele>
      </trkpt>
      <trkpt lat="45.298077" lon="7.29201">
        <time>1970-01-01T00:00:00+00:00</time>
        <ele>1564.0</ele>
      </trkpt>
      <trkpt lat="45.298109" lon="7.292197">
        <time>1970-01-01T00:00:00+00:00</time>
        <ele>1562.0</ele>
      </trkpt>
      <trkpt lat="45.298164" lon="7.292219">
        <time>1970-01-01T00:00:00+00:00</time>
        <ele>1561.0</ele>
      </trkpt>
      <trkpt lat="45.298283" lon="7.292077">
        <time>1970-01-01T00:00:00+00:00</time>
        <ele>1562.0</ele>
      </trkpt>
      <trkpt lat="45.298291" lon="7.291999">
        <time>1970-01-01T00:00:00+00:00</time>
        <ele>1562.0</ele>
      </trkpt>
      <trkpt lat="45.298458" lon="7.291897">
        <time>1970-01-01T00:00:00+00:00</time>
        <ele>1562.0</ele>
      </trkpt>
      <trkpt lat="45.298764" lon="7.291897">
        <time>1970-01-01T00:00:00+00:00</time>
        <ele>1558.0</ele>
      </trkpt>
      <trkpt lat="45.298901" lon="7.291921">
        <time>1970-01-01T00:00:00+00:00</time>
        <ele>1556.0</ele>
      </trkpt>
      <trkpt lat="45.298955" lon="7.29196">
        <time>1970-01-01T00:00:00+00:00</time>
        <ele>1555.0</ele>
      </trkpt>
      <trkpt lat="45.299185" lon="7.291897">
        <time>1970-01-01T00:00:00+00:00</time>
        <ele>1552.0</ele>
      </trkpt>
      <trkpt lat="45.299242" lon="7.291928">
        <time>1970-01-01T00:00:00+00:00</time>
        <ele>1551.0</ele>
      </trkpt>
      <trkpt lat="45.299304" lon="7.291893">
        <time>1970-01-01T00:00:00+00:00</time>
        <ele>1550.0</ele>
      </trkpt>
      <trkpt lat="45.299346" lon="7.291794">
        <time>1970-01-01T00:00:00+00:00</time>
        <ele>1549.0</ele>
      </trkpt>
      <trkpt lat="45.299414" lon="7.29173">
        <time>1970-01-01T00:00:00+00:00</time>
        <ele>1549.0</ele>
      </trkpt>
      <trkpt lat="45.299635" lon="7.291769">
        <time>1970-01-01T00:00:00+00:00</time>
        <ele>1544.0</ele>
      </trkpt>
      <trkpt lat="45.299715" lon="7.29173">
        <time>1970-01-01T00:00:00+00:00</time>
        <ele>1543.0</ele>
      </trkpt>
      <trkpt lat="45.299752" lon="7.291773">
        <time>1970-01-01T00:00:00+00:00</time>
        <ele>1542.0</ele>
      </trkpt>
      <trkpt lat="45.299862" lon="7.291734">
        <time>1970-01-01T00:00:00+00:00</time>
        <ele>1540.0</ele>
      </trkpt>
      <trkpt lat="45.299901" lon="7.29178">
        <time>1970-01-01T00:00:00+00:00</time>
        <ele>1539.0</ele>
      </trkpt>
      <trkpt lat="45.300013" lon="7.291762">
        <time>1970-01-01T00:00:00+00:00</time>
        <ele>1536.0</ele>
      </trkpt>
      <trkpt lat="45.300093" lon="7.291497">
        <time>1970-01-01T00:00:00+00:00</time>
        <ele>1539.0</ele>
      </trkpt>
      <trkpt lat="45.30029" lon="7.291437">
        <time>1970-01-01T00:00:00+00:00</time>
        <ele>1534.0</ele>
      </trkpt>
      <trkpt lat="45.300329" lon="7.291486">
        <time>1970-01-01T00:00:00+00:00</time>
        <ele>1531.0</ele>
      </trkpt>
      <trkpt lat="45.300447" lon="7.291557">
        <time>1970-01-01T00:00:00+00:00</time>
        <ele>1525.0</ele>
      </trkpt>
      <trkpt lat="45.300564" lon="7.291486">
        <time>1970-01-01T00:00:00+00:00</time>
        <ele>1522.0</ele>
      </trkpt>
      <trkpt lat="45.300631" lon="7.291536">
        <time>1970-01-01T00:00:00+00:00</time>
        <ele>1518.0</ele>
      </trkpt>
      <trkpt lat="45.300676" lon="7.291497">
        <time>1970-01-01T00:00:00+00:00</time>
        <ele>1516.0</ele>
      </trkpt>
      <trkpt lat="45.300738" lon="7.291507">
        <time>1970-01-01T00:00:00+00:00</time>
        <ele>1514.0</ele>
      </trkpt>
      <trkpt lat="45.300785" lon="7.291585">
        <time>1970-01-01T00:00:00+00:00</time>
        <ele>1511.0</ele>
      </trkpt>
      <trkpt lat="45.300885" lon="7.291652">
        <time>1970-01-01T00:00:00+00:00</time>
        <ele>1507.0</ele>
      </trkpt>
      <trkpt lat="45.301096" lon="7.291582">
        <time>1970-01-01T00:00:00+00:00</time>
        <ele>1501.0</ele>
      </trkpt>
      <trkpt lat="45.301221" lon="7.291371">
        <time>1970-01-01T00:00:00+00:00</time>
        <ele>1500.0</ele>
      </trkpt>
      <trkpt lat="45.301305" lon="7.291286">
        <time>1970-01-01T00:00:00+00:00</time>
        <ele>1497.0</ele>
      </trkpt>
      <trkpt lat="45.301308" lon="7.291237">
        <time>1970-01-01T00:00:00+00:00</time>
        <ele>1498.0</ele>
      </trkpt>
      <trkpt lat="45.301393" lon="7.291187">
        <time>1970-01-01T00:00:00+00:00</time>
        <ele>1495.0</ele>
      </trkpt>
      <trkpt lat="45.30143" lon="7.291102">
        <time>1970-01-01T00:00:00+00:00</time>
        <ele>1495.0</ele>
      </trkpt>
      <trkpt lat="45.301577" lon="7.291081">
        <time>1970-01-01T00:00:00+00:00</time>
        <ele>1491.0</ele>
      </trkpt>
      <trkpt lat="45.301857" lon="7.290897">
        <time>1970-01-01T00:00:00+00:00</time>
        <ele>1483.0</ele>
      </trkpt>
      <trkpt lat="45.301984" lon="7.290868">
        <time>1970-01-01T00:00:00+00:00</time>
        <ele>1477.0</ele>
      </trkpt>
      <trkpt lat="45.302111" lon="7.290886">
        <time>1970-01-01T00:00:00+00:00</time>
        <ele>1473.0</ele>
      </trkpt>
      <trkpt lat="45.302285" lon="7.290748">
        <time>1970-01-01T00:00:00+00:00</time>
        <ele>1471.0</ele>
      </trkpt>
      <trkpt lat="45.302429" lon="7.290727">
        <time>1970-01-01T00:00:00+00:00</time>
        <ele>1466.0</ele>
      </trkpt>
      <trkpt lat="45.302496" lon="7.290798">
        <time>1970-01-01T00:00:00+00:00</time>
        <ele>1461.0</ele>
      </trkpt>
      <trkpt lat="45.302579" lon="7.29083">
        <time>1970-01-01T00:00:00+00:00</time>
        <ele>1457.0</ele>
      </trkpt>
      <trkpt lat="45.302656" lon="7.290914">
        <time>1970-01-01T00:00:00+00:00</time>
        <ele>1453.0</ele>
      </trkpt>
      <trkpt lat="45.302743" lon="7.290844">
        <time>1970-01-01T00:00:00+00:00</time>
        <ele>1455.0</ele>
      </trkpt>
      <trkpt lat="45.30278" lon="7.290741">
        <time>1970-01-01T00:00:00+00:00</time>
        <ele>1458.0</ele>
      </trkpt>
      <trkpt lat="45.302877" lon="7.290667">
        <time>1970-01-01T00:00:00+00:00</time>
        <ele>1459.0</ele>
      </trkpt>
      <trkpt lat="45.303181" lon="7.290589">
        <time>1970-01-01T00:00:00+00:00</time>
        <ele>1455.0</ele>
      </trkpt>
      <trkpt lat="45.303285" lon="7.290628">
        <time>1970-01-01T00:00:00+00:00</time>
        <ele>1451.0</ele>
      </trkpt>
      <trkpt lat="45.303345" lon="7.290582">
        <time>1970-01-01T00:00:00+00:00</time>
        <ele>1452.0</ele>
      </trkpt>
      <trkpt lat="45.30345" lon="7.290543">
        <time>1970-01-01T00:00:00+00:00</time>
        <ele>1452.0</ele>
      </trkpt>
      <trkpt lat="45.303579" lon="7.290568">
        <time>1970-01-01T00:00:00+00:00</time>
        <ele>1447.0</ele>
      </trkpt>
      <trkpt lat="45.303758" lon="7.290497">
        <time>1970-01-01T00:00:00+00:00</time>
        <ele>1447.0</ele>
      </trkpt>
      <trkpt lat="45.303964" lon="7.290603">
        <time>1970-01-01T00:00:00+00:00</time>
        <ele>1438.0</ele>
      </trkpt>
      <trkpt lat="45.304066" lon="7.290546">
        <time>1970-01-01T00:00:00+00:00</time>
        <ele>1439.0</ele>
      </trkpt>
      <trkpt lat="45.304144" lon="7.290578">
        <time>1970-01-01T00:00:00+00:00</time>
        <ele>1435.0</ele>
      </trkpt>
      <trkpt lat="45.304268" lon="7.290511">
        <time>1970-01-01T00:00:00+00:00</time>
        <ele>1435.0</ele>
      </trkpt>
      <trkpt lat="45.304442" lon="7.290507">
        <time>1970-01-01T00:00:00+00:00</time>
        <ele>1430.0</ele>
      </trkpt>
      <trkpt lat="45.304701" lon="7.290391">
        <time>1970-01-01T00:00:00+00:00</time>
        <ele>1426.0</ele>
      </trkpt>
      <trkpt lat="45.304935" lon="7.29033">
        <time>1970-01-01T00:00:00+00:00</time>
        <ele>1419.0</ele>
      </trkpt>
      <trkpt lat="45.304965" lon="7.290267">
        <time>1970-01-01T00:00:00+00:00</time>
        <ele>1420.0</ele>
      </trkpt>
      <trkpt lat="45.305065" lon="7.290203">
        <time>1970-01-01T00:00:00+00:00</time>
        <ele>1419.0</ele>
      </trkpt>
      <trkpt lat="45.305261" lon="7.290192">
        <time>1970-01-01T00:00:00+00:00</time>
        <ele>1415.0</ele>
      </trkpt>
      <trkpt lat="45.305381" lon="7.290139">
        <time>1970-01-01T00:00:00+00:00</time>
        <ele>1415.0</ele>
      </trkpt>
      <trkpt lat="45.305538" lon="7.290129">
        <time>1970-01-01T00:00:00+00:00</time>
        <ele>1413.0</ele>
      </trkpt>
      <trkpt lat="45.305751" lon="7.290178">
        <time>1970-01-01T00:00:00+00:00</time>
        <ele>1408.0</ele>
      </trkpt>
      <trkpt lat="45.305856" lon="7.290316">
        <time>1970-01-01T00:00:00+00:00</time>
        <ele>1403.0</ele>
      </trkpt>
      <trkpt lat="45.305988" lon="7.290341">
        <time>1970-01-01T00:00:00+00:00</time>
        <ele>1402.0</ele>
      </trkpt>
      <trkpt lat="45.306057" lon="7.290415">
        <time>1970-01-01T00:00:00+00:00</time>
        <ele>1400.0</ele>
      </trkpt>
      <trkpt lat="45.306112" lon="7.290412">
        <time>1970-01-01T00:00:00+00:00</time>
        <ele>1400.0</ele>
      </trkpt>
      <trkpt lat="45.306376" lon="7.290515">
        <time>1970-01-01T00:00:00+00:00</time>
        <ele>1394.0</ele>
      </trkpt>
      <trkpt lat="45.30645" lon="7.290575">
        <time>1970-01-01T00:00:00+00:00</time>
        <ele>1391.0</ele>
      </trkpt>
      <trkpt lat="45.306615" lon="7.290617">
        <time>1970-01-01T00:00:00+00:00</time>
        <ele>1388.0</ele>
      </trkpt>
      <trkpt lat="45.306677" lon="7.290663">
        <time>1970-01-01T00:00:00+00:00</time>
        <ele>1385.0</ele>
      </trkpt>
      <trkpt lat="45.306779" lon="7.290699">
        <time>1970-01-01T00:00:00+00:00</time>
        <ele>1382.0</ele>
      </trkpt>
      <trkpt lat="45.306856" lon="7.290681">
        <time>1970-01-01T00:00:00+00:00</time>
        <ele>1382.0</ele>
      </trkpt>
      <trkpt lat="45.30706" lon="7.290709">
        <time>1970-01-01T00:00:00+00:00</time>
        <ele>1378.0</ele>
      </trkpt>
      <trkpt lat="45.307215" lon="7.290798">
        <time>1970-01-01T00:00:00+00:00</time>
        <ele>1371.0</ele>
      </trkpt>
      <trkpt lat="45.307287" lon="7.290745">
        <time>1970-01-01T00:00:00+00:00</time>
        <ele>1372.0</ele>
      </trkpt>
      <trkpt lat="45.307414" lon="7.290737">
        <time>1970-01-01T00:00:00+00:00</time>
        <ele>1368.0</ele>
      </trkpt>
      <trkpt lat="45.307526" lon="7.290699">
        <time>1970-01-01T00:00:00+00:00</time>
        <ele>1366.0</ele>
      </trkpt>
      <trkpt lat="45.307797" lon="7.290426">
        <time>1970-01-01T00:00:00+00:00</time>
        <ele>1358.0</ele>
      </trkpt>
      <trkpt lat="45.307912" lon="7.290044">
        <time>1970-01-01T00:00:00+00:00</time>
        <ele>1351.0</ele>
      </trkpt>
      <trkpt lat="45.308056" lon="7.289676">
        <time>1970-01-01T00:00:00+00:00</time>
        <ele>1340.0</ele>
      </trkpt>
      <trkpt lat="45.308223" lon="7.288961">
        <time>1970-01-01T00:00:00+00:00</time>
        <ele>1322.0</ele>
      </trkpt>
      <trkpt lat="45.3083" lon="7.288462">
        <time>1970-01-01T00:00:00+00:00</time>
        <ele>1307.0</ele>
      </trkpt>
      <trkpt lat="45.308297" lon="7.288264">
        <time>1970-01-01T00:00:00+00:00</time>
        <ele>1304.0</ele>
      </trkpt>
      <trkpt lat="45.308322" lon="7.288012">
        <time>1970-01-01T00:00:00+00:00</time>
        <ele>1301.0</ele>
      </trkpt>
      <trkpt lat="45.308285" lon="7.287839">
        <time>1970-01-01T00:00:00+00:00</time>
        <ele>1302.0</ele>
      </trkpt>
      <trkpt lat="45.30834" lon="7.287644">
        <time>1970-01-01T00:00:00+00:00</time>
        <ele>1298.0</ele>
      </trkpt>
      <trkpt lat="45.308409" lon="7.287577">
        <time>1970-01-01T00:00:00+00:00</time>
        <ele>1294.0</ele>
      </trkpt>
      <trkpt lat="45.308472" lon="7.287354">
        <time>1970-01-01T00:00:00+00:00</time>
        <ele>1292.0</ele>
      </trkpt>
      <trkpt lat="45.308529" lon="7.287308">
        <time>1970-01-01T00:00:00+00:00</time>
        <ele>1290.0</ele>
      </trkpt>
      <trkpt lat="45.308703" lon="7.287379">
        <time>1970-01-01T00:00:00+00:00</time>
        <ele>1284.0</ele>
      </trkpt>
      <trkpt lat="45.308857" lon="7.287343">
        <time>1970-01-01T00:00:00+00:00</time>
        <ele>1280.0</ele>
      </trkpt>
      <trkpt lat="45.308989" lon="7.287382">
        <time>1970-01-01T00:00:00+00:00</time>
        <ele>1274.0</ele>
      </trkpt>
      <trkpt lat="45.309107" lon="7.287361">
        <time>1970-01-01T00:00:00+00:00</time>
        <ele>1270.0</ele>
      </trkpt>
      <trkpt lat="45.309177" lon="7.287414">
        <time>1970-01-01T00:00:00+00:00</time>
        <ele>1266.0</ele>
      </trkpt>
      <trkpt lat="45.309371" lon="7.287294">
        <time>1970-01-01T00:00:00+00:00</time>
        <ele>1260.0</ele>
      </trkpt>
      <trkpt lat="45.309446" lon="7.287181">
        <time>1970-01-01T00:00:00+00:00</time>
        <ele>1258.0</ele>
      </trkpt>
      <trkpt lat="45.30959" lon="7.287198">
        <time>1970-01-01T00:00:00+00:00</time>
        <ele>1253.0</ele>
      </trkpt>
      <trkpt lat="45.310103" lon="7.287375">
        <time>1970-01-01T00:00:00+00:00</time>
        <ele>1235.0</ele>
      </trkpt>
      <trkpt lat="45.310185" lon="7.287354">
        <time>1970-01-01T00:00:00+00:00</time>
        <ele>1233.0</ele>
      </trkpt>
      <trkpt lat="45.310252" lon="7.287425">
        <time>1970-01-01T00:00:00+00:00</time>
        <ele>1230.0</ele>
      </trkpt>
      <trkpt lat="45.310267" lon="7.287584">
        <time>1970-01-01T00:00:00+00:00</time>
        <ele>1227.0</ele>
      </trkpt>
      <trkpt lat="45.310354" lon="7.287761">
        <time>1970-01-01T00:00:00+00:00</time>
        <ele>1222.0</ele>
      </trkpt>
      <trkpt lat="45.310494" lon="7.287878">
        <time>1970-01-01T00:00:00+00:00</time>
        <ele>1215.0</ele>
      </trkpt>
      <trkpt lat="45.310516" lon="7.288026">
        <time>1970-01-01T00:00:00+00:00</time>
        <ele>1212.0</ele>
      </trkpt>
      <trkpt lat="45.310546" lon="7.288101">
        <time>1970-01-01T00:00:00+00:00</time>
        <ele>1209.0</ele>
      </trkpt>
      <trkpt lat="45.310683" lon="7.288182">
        <time>1970-01-01T00:00:00+00:00</time>
        <ele>1202.0</ele>
      </trkpt>
      <trkpt lat="45.3109" lon="7.28836">
        <time>1970-01-01T00:00:00+00:00</time>
        <ele>1193.0</ele>
      </trkpt>
      <trkpt lat="45.310994" lon="7.288353">
        <time>1970-01-01T00:00:00+00:00</time>
        <ele>1189.0</ele>
      </trkpt>
      <trkpt lat="45.311029" lon="7.288417">
        <time>1970-01-01T00:00:00+00:00</time>
        <ele>1187.0</ele>
      </trkpt>
      <trkpt lat="45.311066" lon="7.28842">
        <time>1970-01-01T00:00:00+00:00</time>
        <ele>1185.0</ele>
      </trkpt>
      <trkpt lat="45.311106" lon="7.288346">
        <time>1970-01-01T00:00:00+00:00</time>
        <ele>1184.0</ele>
      </trkpt>
      <trkpt lat="45.311136" lon="7.288526">
        <time>1970-01-01T00:00:00+00:00</time>
        <ele>1180.0</ele>
      </trkpt>
      <trkpt lat="45.311203" lon="7.288583">
        <time>1970-01-01T00:00:00+00:00</time>
        <ele>1176.0</ele>
      </trkpt>
      <trkpt lat="45.311275" lon="7.288597">
        <time>1970-01-01T00:00:00+00:00</time>
        <ele>1173.0</ele>
      </trkpt>
      <trkpt lat="45.311328" lon="7.288487">
        <time>1970-01-01T00:00:00+00:00</time>
        <ele>1173.0</ele>
      </trkpt>
      <trkpt lat="45.31139" lon="7.288201">
        <time>1970-01-01T00:00:00+00:00</time>
        <ele>1175.0</ele>
      </trkpt>
      <trkpt lat="45.311445" lon="7.288187">
        <time>1970-01-01T00:00:00+00:00</time>
        <ele>1173.0</ele>
      </trkpt>
      <trkpt lat="45.311552" lon="7.288279">
        <time>1970-01-01T00:00:00+00:00</time>
        <ele>1168.0</ele>
      </trkpt>
      <trkpt lat="45.311639" lon="7.28842">
        <time>1970-01-01T00:00:00+00:00</time>
        <ele>1164.0</ele>
      </trkpt>
      <trkpt lat="45.311669" lon="7.28841">
        <time>1970-01-01T00:00:00+00:00</time>
        <ele>1162.0</ele>
      </trkpt>
      <trkpt lat="45.311756" lon="7.288261">
        <time>1970-01-01T00:00:00+00:00</time>
        <ele>1160.0</ele>
      </trkpt>
      <trkpt lat="45.311918" lon="7.288254">
        <time>1970-01-01T00:00:00+00:00</time>
        <ele>1155.0</ele>
      </trkpt>
      <trkpt lat="45.312037" lon="7.288332">
        <time>1970-01-01T00:00:00+00:00</time>
        <ele>1152.0</ele>
      </trkpt>
      <trkpt lat="45.312092" lon="7.288321">
        <time>1970-01-01T00:00:00+00:00</time>
        <ele>1150.0</ele>
      </trkpt>
      <trkpt lat="45.312209" lon="7.288438">
        <time>1970-01-01T00:00:00+00:00</time>
        <ele>1144.0</ele>
      </trkpt>
      <trkpt lat="45.312413" lon="7.288419">
        <time>1970-01-01T00:00:00+00:00</time>
        <ele>1137.0</ele>
      </trkpt>
      <trkpt lat="45.312558" lon="7.288331">
        <time>1970-01-01T00:00:00+00:00</time>
        <ele>1134.0</ele>
      </trkpt>
      <trkpt lat="45.312729" lon="7.288172">
        <time>1970-01-01T00:00:00+00:00</time>
        <ele>1129.0</ele>
      </trkpt>
      <trkpt lat="45.312772" lon="7.288242">
        <time>1970-01-01T00:00:00+00:00</time>
        <ele>1126.0</ele>
      </trkpt>
      <trkpt lat="45.312819" lon="7.288476">
        <time>1970-01-01T00:00:00+00:00</time>
        <ele>1120.0</ele>
      </trkpt>
      <trkpt lat="45.312879" lon="7.288582">
        <time>1970-01-01T00:00:00+00:00</time>
        <ele>1113.0</ele>
      </trkpt>
      <trkpt lat="45.312958" lon="7.288632">
        <time>1970-01-01T00:00:00+00:00</time>
        <ele>1105.0</ele>
      </trkpt>
      <trkpt lat="45.313073" lon="7.288554">
        <time>1970-01-01T00:00:00+00:00</time>
        <ele>1100.0</ele>
      </trkpt>
      <trkpt lat="45.313105" lon="7.288562">
        <time>1970-01-01T00:00:00+00:00</time>
        <ele>1097.0</ele>
      </trkpt>
      <trkpt lat="45.313129" lon="7.288572">
        <time>1970-01-01T00:00:00+00:00</time>
        <ele>1096.0</ele>
      </trkpt>
      <trkpt lat="45.313365" lon="7.288859">
        <time>1970-01-01T00:00:00+00:00</time>
        <ele>1083.0</ele>
      </trkpt>
      <trkpt lat="45.313396" lon="7.288893">
        <time>1970-01-01T00:00:00+00:00</time>
        <ele>1082.0</ele>
      </trkpt>
      <trkpt lat="45.31337" lon="7.289028">
        <time>1970-01-01T00:00:00+00:00</time>
        <ele>1081.0</ele>
      </trkpt>
      <trkpt lat="45.313336" lon="7.289407">
        <time>1970-01-01T00:00:00+00:00</time>
        <ele>1078.0</ele>
      </trkpt>
      <trkpt lat="45.313267" lon="7.289559">
        <time>1970-01-01T00:00:00+00:00</time>
        <ele>1077.0</ele>
      </trkpt>
      <trkpt lat="45.313239" lon="7.289676">
        <time>1970-01-01T00:00:00+00:00</time>
        <ele>1076.0</ele>
      </trkpt>
      <trkpt lat="45.313233" lon="7.289845">
        <time>1970-01-01T00:00:00+00:00</time>
        <ele>1076.0</ele>
      </trkpt>
      <trkpt lat="45.313249" lon="7.289958">
        <time>1970-01-01T00:00:00+00:00</time>
        <ele>1077.0</ele>
      </trkpt>
      <trkpt lat="45.313321" lon="7.290207">
        <time>1970-01-01T00:00:00+00:00</time>
        <ele>1078.0</ele>
      </trkpt>
      <trkpt lat="45.313331" lon="7.290295">
        <time>1970-01-01T00:00:00+00:00</time>
        <ele>1079.0</ele>
      </trkpt>
      <trkpt lat="45.313262" lon="7.290606">
        <time>1970-01-01T00:00:00+00:00</time>
        <ele>1077.0</ele>
      </trkpt>
      <trkpt lat="45.313203" lon="7.291189">
        <time>1970-01-01T00:00:00+00:00</time>
        <ele>1073.0</ele>
      </trkpt>
      <trkpt lat="45.313199" lon="7.29136">
        <time>1970-01-01T00:00:00+00:00</time>
        <ele>1071.0</ele>
      </trkpt>
      <trkpt lat="45.313215" lon="7.291491">
        <time>1970-01-01T00:00:00+00:00</time>
        <ele>1070.0</ele>
      </trkpt>
      <trkpt lat="45.313355" lon="7.291914">
        <time>1970-01-01T00:00:00+00:00</time>
        <ele>1069.0</ele>
      </trkpt>
      <trkpt lat="45.313471" lon="7.292366">
        <time>1970-01-01T00:00:00+00:00</time>
        <ele>1069.0</ele>
      </trkpt>
      <trkpt lat="45.313538" lon="7.293021">
        <time>1970-01-01T00:00:00+00:00</time>
        <ele>1067.0</ele>
      </trkpt>
      <trkpt lat="45.313643" lon="7.293401">
        <time>1970-01-01T00:00:00+00:00</time>
        <ele>1067.0</ele>
      </trkpt>
      <trkpt lat="45.313646" lon="7.293496">
        <time>1970-01-01T00:00:00+00:00</time>
        <ele>1067.0</ele>
      </trkpt>
      <trkpt lat="45.313629" lon="7.293564">
        <time>1970-01-01T00:00:00+00:00</time>
        <ele>1067.0</ele>
      </trkpt>
      <trkpt lat="45.313408" lon="7.293904">
        <time>1970-01-01T00:00:00+00:00</time>
        <ele>1066.0</ele>
      </trkpt>
      <trkpt lat="45.313343" lon="7.294119">
        <time>1970-01-01T00:00:00+00:00</time>
        <ele>1066.0</ele>
      </trkpt>
      <trkpt lat="45.313329" lon="7.294276">
        <time>1970-01-01T00:00:00+00:00</time>
        <ele>1066.0</ele>
      </trkpt>
      <trkpt lat="45.313338" lon="7.294443">
        <time>1970-01-01T00:00:00+00:00</time>
        <ele>1067.0</ele>
      </trkpt>
      <trkpt lat="45.313385" lon="7.294878">
        <time>1970-01-01T00:00:00+00:00</time>
        <ele>1069.0</ele>
      </trkpt>
      <trkpt lat="45.313423" lon="7.295585">
        <time>1970-01-01T00:00:00+00:00</time>
        <ele>1073.0</ele>
      </trkpt>
      <trkpt lat="45.313445" lon="7.295969">
        <time>1970-01-01T00:00:00+00:00</time>
        <ele>1073.0</ele>
      </trkpt>
      <trkpt lat="45.313476" lon="7.296231">
        <time>1970-01-01T00:00:00+00:00</time>
        <ele>1072.0</ele>
      </trkpt>
      <trkpt lat="45.313531" lon="7.29644">
        <time>1970-01-01T00:00:00+00:00</time>
        <ele>1072.0</ele>
      </trkpt>
      <trkpt lat="45.3136" lon="7.29658">
        <time>1970-01-01T00:00:00+00:00</time>
        <ele>1072.0</ele>
      </trkpt>
      <trkpt lat="45.313677" lon="7.296736">
        <time>1970-01-01T00:00:00+00:00</time>
        <ele>1073.0</ele>
      </trkpt>
      <trkpt lat="45.313714" lon="7.296916">
        <time>1970-01-01T00:00:00+00:00</time>
        <ele>1074.0</ele>
      </trkpt>
      <trkpt lat="45.31389" lon="7.29838">
        <time>1970-01-01T00:00:00+00:00</time>
        <ele>1074.0</ele>
      </trkpt>
      <trkpt lat="45.314103" lon="7.299162">
        <time>1970-01-01T00:00:00+00:00</time>
        <ele>1073.0</ele>
      </trkpt>
      <trkpt lat="45.314317" lon="7.299863">
        <time>1970-01-01T00:00:00+00:00</time>
        <ele>1067.0</ele>
      </trkpt>
      <trkpt lat="45.314479" lon="7.300116">
        <time>1970-01-01T00:00:00+00:00</time>
        <ele>1067.0</ele>
      </trkpt>
      <trkpt lat="45.314607" lon="7.300215">
        <time>1970-01-01T00:00:00+00:00</time>
        <ele>1068.0</ele>
      </trkpt>
      <trkpt lat="45.31468" lon="7.300238">
        <time>1970-01-01T00:00:00+00:00</time>
        <ele>1069.0</ele>
      </trkpt>
      <trkpt lat="45.314696" lon="7.300352">
        <time>1970-01-01T00:00:00+00:00</time>
        <ele>1069.0</ele>
      </trkpt>
      <trkpt lat="45.3147" lon="7.300745">
        <time>1970-01-01T00:00:00+00:00</time>
        <ele>1065.0</ele>
      </trkpt>
      <trkpt lat="45.314706" lon="7.301051">
        <time>1970-01-01T00:00:00+00:00</time>
        <ele>1062.0</ele>
      </trkpt>
      <trkpt lat="45.314668" lon="7.30151">
        <time>1970-01-01T00:00:00+00:00</time>
        <ele>1060.0</ele>
      </trkpt>
      <trkpt lat="45.314663" lon="7.30176">
        <time>1970-01-01T00:00:00+00:00</time>
        <ele>1059.0</ele>
      </trkpt>
      <trkpt lat="45.314618" lon="7.301942">
        <time>1970-01-01T00:00:00+00:00</time>
        <ele>1058.0</ele>
      </trkpt>
      <trkpt lat="45.314601" lon="7.302168">
        <time>1970-01-01T00:00:00+00:00</time>
        <ele>1058.0</ele>
      </trkpt>
      <trkpt lat="45.31463" lon="7.302434">
        <time>1970-01-01T00:00:00+00:00</time>
        <ele>1058.0</ele>
      </trkpt>
      <trkpt lat="45.314667" lon="7.302517">
        <time>1970-01-01T00:00:00+00:00</time>
        <ele>1058.0</ele>
      </trkpt>
      <trkpt lat="45.314698" lon="7.302713">
        <time>1970-01-01T00:00:00+00:00</time>
        <ele>1059.0</ele>
      </trkpt>
      <trkpt lat="45.314687" lon="7.302971">
        <time>1970-01-01T00:00:00+00:00</time>
        <ele>1059.0</ele>
      </trkpt>
      <trkpt lat="45.314681" lon="7.303143">
        <time>1970-01-01T00:00:00+00:00</time>
        <ele>1060.0</ele>
      </trkpt>
      <trkpt lat="45.31466" lon="7.303242">
        <time>1970-01-01T00:00:00+00:00</time>
        <ele>1060.0</ele>
      </trkpt>
      <trkpt lat="45.314442" lon="7.303585">
        <time>1970-01-01T00:00:00+00:00</time>
        <ele>1057.0</ele>
      </trkpt>
      <trkpt lat="45.314351" lon="7.303792">
        <time>1970-01-01T00:00:00+00:00</time>
        <ele>1056.0</ele>
      </trkpt>
      <trkpt lat="45.314316" lon="7.303897">
        <time>1970-01-01T00:00:00+00:00</time>
        <ele>1055.0</ele>
      </trkpt>
      <trkpt lat="45.314309" lon="7.304224">
        <time>1970-01-01T00:00:00+00:00</time>
        <ele>1055.0</ele>
      </trkpt>
      <trkpt lat="45.314284" lon="7.304293">
        <time>1970-01-01T00:00:00+00:00</time>
        <ele>1053.0</ele>
      </trkpt>
      <trkpt lat="45.314234" lon="7.304353">
        <time>1970-01-01T00:00:00+00:00</time>
        <ele>1052.0</ele>
      </trkpt>
      <trkpt lat="45.314144" lon="7.304527">
        <time>1970-01-01T00:00:00+00:00</time>
        <ele>1049.0</ele>
      </trkpt>
      <trkpt lat="45.314005" lon="7.304926">
        <time>1970-01-01T00:00:00+00:00</time>
        <ele>1044.0</ele>
      </trkpt>
      <trkpt lat="45.313974" lon="7.305223">
        <time>1970-01-01T00:00:00+00:00</time>
        <ele>1042.0</ele>
      </trkpt>
      <trkpt lat="45.313951" lon="7.305304">
        <time>1970-01-01T00:00:00+00:00</time>
        <ele>1042.0</ele>
      </trkpt>
      <trkpt lat="45.313851" lon="7.305605">
        <time>1970-01-01T00:00:00+00:00</time>
        <ele>1039.0</ele>
      </trkpt>
      <trkpt lat="45.313816" lon="7.305967">
        <time>1970-01-01T00:00:00+00:00</time>
        <ele>1038.0</ele>
      </trkpt>
      <trkpt lat="45.313708" lon="7.306512">
        <time>1970-01-01T00:00:00+00:00</time>
        <ele>1035.0</ele>
      </trkpt>
      <trkpt lat="45.313569" lon="7.306725">
        <time>1970-01-01T00:00:00+00:00</time>
        <ele>1033.0</ele>
      </trkpt>
      <trkpt lat="45.313504" lon="7.306817">
        <time>1970-01-01T00:00:00+00:00</time>
        <ele>1032.0</ele>
      </trkpt>
      <trkpt lat="45.313469" lon="7.306895">
        <time>1970-01-01T00:00:00+00:00</time>
        <ele>1031.0</ele>
      </trkpt>
      <trkpt lat="45.313456" lon="7.306941">
        <time>1970-01-01T00:00:00+00:00</time>
        <ele>1031.0</ele>
      </trkpt>
      <trkpt lat="45.313445" lon="7.306993">
        <time>1970-01-01T00:00:00+00:00</time>
        <ele>1031.0</ele>
      </trkpt>
      <trkpt lat="45.313677" lon="7.307141">
        <time>1970-01-01T00:00:00+00:00</time>
        <ele>1035.0</ele>
      </trkpt>
    </trkseg>
  </trk>
</gpx>
